ECMWFFLT2_sfc_thetae_069.txt.gz
Theta_e
309 309 312 311 311 299 306 307 302 305 311 307 303 304 306 306 303 300 307 304 306 310 312 315 316 317 319 321 322 324 326 327 330 333 333 335 334 336 340 340 340 346 348 352 352 356 355 356 356 355 358 359 361 362 363 365 367 366 365 364 363 363 363
309 312 312 312 312 311 308 303 306 312 313 311 305 297 301 300 298 301 305 302 304 303 300 312 313 314 316 319 320 322 325 327 327 331 334 334 331 334 337 340 346 347 348 349 353 355 356 356 356 357 359 360 362 362 364 364 366 366 366 365 363 363 363
308 312 311 309 312 313 306 306 314 305 300 299 304 302 294 295 296 299 303 305 305 306 306 309 310 312 315 318 321 321 322 325 327 329 332 334 335 335 335 339 342 346 349 350 355 354 355 357 359 359 359 359 360 362 364 365 365 366 365 364 364 363 363
306 308 307 298 304 310 311 311 306 311 308 303 300 302 303 302 297 298 299 303 301 309 310 311 311 313 315 316 318 319 321 323 325 327 328 333 334 335 335 338 342 347 346 347 354 354 354 356 358 358 358 358 359 362 364 365 366 367 367 364 364 362 363
304 298 303 301 304 303 304 304 303 306 306 310 308 307 302 300 298 299 299 297 303 310 314 314 315 315 315 316 316 319 321 322 323 325 326 329 333 334 335 336 337 341 343 342 349 354 354 356 358 359 358 359 359 361 362 363 365 365 364 364 364 365 364
299 300 306 306 306 306 305 304 303 306 304 302 299 298 307 304 300 296 299 298 308 312 315 314 315 317 317 317 318 318 320 321 324 324 325 328 330 334 336 338 339 339 341 346 349 348 354 354 356 357 357 358 359 359 360 362 363 363 363 363 364 364 365
298 303 306 308 308 308 306 307 305 307 307 306 302 295 300 304 303 305 304 302 305 317 317 317 315 316 316 318 318 317 318 320 320 323 326 328 331 332 333 335 339 342 344 346 347 348 352 353 355 357 358 357 357 359 360 361 361 362 363 363 363 365 363
303 305 307 307 308 306 303 306 307 306 303 305 304 304 306 303 304 301 301 299 304 314 319 319 317 319 318 320 319 319 318 318 320 322 325 329 331 334 334 335 336 340 343 347 349 349 351 353 355 356 357 357 358 359 359 359 359 361 361 361 361 364 362
295 297 302 302 306 306 303 302 306 307 307 307 307 308 308 302 304 305 301 296 302 312 317 319 318 316 316 316 318 319 318 321 321 321 323 326 333 334 333 335 337 339 339 343 351 352 357 355 353 356 356 357 357 358 358 359 359 360 359 361 360 363 362
286 286 288 291 295 299 303 305 305 307 306 306 304 300 303 298 305 307 303 303 309 314 319 317 316 316 318 318 318 319 320 321 320 322 323 327 330 335 335 337 337 339 342 343 353 354 356 353 353 356 357 357 357 358 358 360 358 359 358 359 360 361 362
291 294 298 300 302 300 298 301 303 304 307 307 307 305 301 299 305 304 306 308 308 309 313 315 316 317 316 315 317 318 319 321 322 326 328 328 329 334 333 337 338 349 354 350 355 358 350 352 352 354 355 356 357 358 359 359 359 359 359 358 360 361 362
296 298 298 299 300 297 299 299 300 303 303 305 304 301 300 308 304 298 307 312 307 309 313 314 317 318 319 317 318 317 320 321 321 322 327 335 330 332 334 337 338 339 349 352 353 355 353 352 353 353 355 356 357 358 358 359 359 358 358 358 359 361 361
295 297 297 298 298 298 298 299 300 300 302 303 302 302 305 306 303 300 308 311 310 312 314 316 318 321 321 317 322 323 323 323 327 329 326 325 327 334 335 343 345 346 343 352 356 353 353 353 353 352 353 355 357 358 359 360 358 359 360 358 358 359 362
294 295 296 297 296 296 297 298 299 301 301 301 303 304 305 305 305 308 308 311 310 313 314 322 321 324 323 323 325 325 325 326 329 329 327 323 323 324 326 330 333 343 345 349 355 356 358 354 353 351 352 356 355 356 357 358 359 359 359 359 360 360 361
292 294 296 296 296 295 294 297 299 300 301 302 303 304 305 307 306 306 306 309 309 315 319 322 324 325 323 324 324 325 329 329 329 331 330 329 332 331 334 338 338 340 343 346 352 358 359 357 354 352 353 355 355 355 357 358 359 359 359 360 360 361 363
289 293 294 294 295 295 294 295 298 299 299 299 302 301 304 304 304 305 306 305 306 314 317 320 324 322 323 322 323 326 329 332 333 331 331 333 334 334 334 338 344 345 343 344 347 352 355 355 354 353 355 353 353 353 355 356 357 358 359 359 360 365 365
288 292 294 294 294 293 290 292 296 299 301 302 304 305 306 306 307 304 301 304 310 313 319 321 321 321 323 323 328 331 332 337 333 335 333 334 337 338 341 338 338 344 346 345 346 348 352 354 353 353 354 353 354 355 355 356 357 357 357 358 362 366 366
287 292 294 294 291 284 286 298 301 302 300 301 300 301 304 307 308 307 310 310 313 317 322 320 321 322 325 327 327 327 327 336 338 335 337 337 338 340 342 345 347 346 352 352 356 355 352 356 355 354 355 353 355 355 355 357 357 358 359 360 362 362 365
287 291 292 287 283 285 298 301 303 305 305 305 304 304 306 306 309 310 310 311 314 320 321 321 323 324 326 327 325 326 332 333 333 332 333 335 336 339 341 343 346 350 354 355 356 357 357 352 351 355 352 353 355 355 355 355 356 361 359 360 361 363 365
290 287 287 279 283 295 299 301 303 305 305 305 305 303 305 307 309 310 310 312 315 318 319 320 323 325 325 326 328 331 329 329 328 328 329 331 334 336 340 342 345 349 350 353 354 357 360 357 349 353 353 352 352 353 354 354 355 357 360 361 361 363 365
285 286 286 286 294 292 295 296 299 302 301 304 304 299 302 308 310 314 315 316 318 318 319 320 322 324 325 323 325 325 325 324 325 326 328 331 333 336 340 344 346 351 353 355 357 358 356 356 351 348 352 351 351 352 353 353 356 355 357 362 361 363 364
291 285 284 286 286 282 290 298 306 311 311 313 313 309 303 312 315 317 316 315 316 316 318 320 322 322 318 316 317 323 322 322 323 325 328 331 332 334 338 344 348 352 354 356 357 356 353 351 352 348 352 352 351 353 352 352 355 355 355 358 361 365 364
290 287 283 283 281 288 300 303 307 308 309 311 314 306 301 312 315 315 314 313 315 315 316 319 321 319 312 312 318 318 319 319 322 323 326 328 330 332 336 342 346 349 353 355 355 357 354 346 348 347 351 353 350 352 354 352 354 354 355 358 360 363 364
290 289 285 282 288 287 301 305 305 308 310 310 308 294 294 309 314 314 314 312 313 315 318 318 319 317 315 315 314 317 317 319 320 322 322 324 326 329 335 343 348 352 354 355 354 351 349 348 346 347 349 352 353 355 351 352 353 355 356 359 363 366 367
289 288 287 289 290 300 304 305 307 309 310 306 293 289 297 309 312 311 313 311 312 314 316 318 316 317 314 314 316 317 318 318 318 320 322 324 326 328 332 339 346 350 353 352 353 353 351 352 345 344 348 352 354 355 356 356 355 355 358 362 365 368 368
287 289 286 286 291 298 303 308 307 309 302 293 292 300 305 306 309 310 310 310 311 313 314 314 314 315 315 315 317 317 316 317 317 318 320 322 324 328 331 337 342 350 352 352 354 353 351 349 347 348 353 357 359 363 359 354 357 357 361 364 365 368 369
291 289 287 284 281 297 305 306 306 307 297 297 300 302 305 309 308 308 309 309 310 312 311 312 313 313 312 313 314 315 316 315 315 315 317 318 319 322 327 334 341 347 352 354 352 353 349 349 350 351 351 362 364 362 357 361 358 362 362 364 367 369 369
288 288 285 285 295 301 306 305 298 301 302 304 305 304 301 304 308 308 308 309 311 312 312 312 312 312 312 313 314 314 314 314 314 315 315 317 319 323 327 333 342 347 351 354 353 353 349 352 352 353 356 365 363 360 361 367 362 364 365 366 369 368 368
292 290 292 299 303 304 306 308 307 306 306 308 307 306 304 303 305 309 308 308 310 312 313 312 311 310 310 311 313 311 312 313 313 313 314 315 317 319 324 334 342 347 352 353 353 353 355 357 356 359 360 361 363 362 365 369 371 366 366 367 367 367 366
301 300 301 304 304 304 304 307 309 307 307 308 307 306 305 306 305 306 307 308 309 311 313 311 310 310 311 311 311 311 312 311 312 314 314 315 318 320 328 334 340 346 354 352 355 352 353 354 355 360 360 359 362 363 364 368 368 368 367 368 368 368 367
294 288 302 301 302 303 304 306 307 308 307 306 307 306 307 306 307 306 309 310 311 312 313 313 311 311 311 311 311 311 311 311 312 313 313 315 317 321 328 332 338 347 354 351 352 353 352 353 354 353 357 359 365 367 368 363 363 369 369 369 367 368 367
292 292 297 299 302 304 305 307 304 303 305 306 307 308 308 309 309 310 309 310 310 312 311 313 312 312 312 311 311 311 311 312 313 313 314 314 317 323 329 332 340 347 352 352 354 358 359 363 359 355 356 359 363 365 364 363 364 369 370 368 367 368 365
294 297 298 299 302 304 305 304 303 304 304 305 306 308 309 309 309 309 310 311 311 311 312 314 313 312 313 312 312 312 312 313 313 314 313 314 318 325 327 331 339 344 348 351 353 354 357 361 363 365 362 362 364 365 365 365 371 369 369 366 368 367 365
289 289 293 297 292 292 297 300 302 304 306 306 307 307 308 309 309 309 308 310 311 312 313 314 314 313 313 314 314 313 312 313 315 317 316 315 318 324 328 331 336 342 345 348 349 350 352 355 357 360 363 367 367 365 366 368 371 368 368 367 368 366 364
286 295 297 299 298 297 298 300 303 305 307 307 306 306 307 308 310 310 308 308 309 311 314 315 314 314 314 315 316 315 314 314 316 317 320 317 319 323 327 330 333 337 340 343 345 344 345 349 351 354 358 361 365 369 373 371 370 369 368 365 364 363 362
296 298 298 300 298 296 298 302 304 304 307 306 306 307 308 309 310 310 309 309 308 310 312 314 315 315 315 316 316 315 315 314 315 318 321 321 321 325 327 329 331 331 333 337 341 342 343 345 349 352 353 356 359 363 367 372 372 370 369 365 361 360 361
294 300 300 300 300 300 302 303 304 305 306 306 305 307 308 309 309 310 310 310 311 311 312 312 315 317 316 316 316 316 315 315 317 318 319 321 321 323 324 328 329 328 330 333 338 341 341 339 340 342 343 346 353 359 365 368 371 370 367 366 362 363 364

ECMWFFLT2_sfc_thetae_072.txt.gz
Theta_e
307 307 311 310 310 298 305 305 300 302 309 305 301 302 304 303 301 298 306 303 305 310 309 311 312 313 315 319 320 321 330 334 335 335 335 334 336 339 341 340 341 343 345 352 350 350 349 349 351 351 353 355 356 358 360 362 363 363 362 363 362 362 362
309 310 311 311 311 310 307 301 304 310 311 309 303 296 300 298 295 298 303 301 303 302 299 310 310 310 312 316 319 320 323 331 333 334 334 334 333 336 338 340 341 341 345 347 353 355 353 355 355 355 355 357 358 359 359 360 362 361 361 361 360 361 362
308 311 310 308 311 312 305 304 311 304 298 297 303 300 293 293 293 296 301 304 304 305 305 308 307 308 310 314 317 319 321 328 330 328 332 336 338 337 339 342 344 345 345 347 352 351 352 353 354 354 354 356 357 359 359 361 361 362 361 360 360 362 362
306 307 306 298 303 310 310 310 306 308 304 302 299 300 301 300 295 296 297 301 300 308 309 310 310 310 312 313 315 317 320 322 333 332 333 336 337 339 341 341 343 344 346 348 349 350 349 350 352 353 356 358 354 355 360 361 363 364 363 360 362 361 361
304 297 303 301 303 302 303 303 302 304 304 306 305 305 301 298 297 296 296 296 302 309 314 313 314 313 314 314 316 320 319 321 324 326 334 334 334 337 342 340 341 342 343 346 349 348 349 349 353 354 352 351 355 356 361 361 362 362 361 360 361 361 361
297 299 304 305 305 305 304 303 302 303 301 300 297 295 305 302 298 295 296 295 305 311 315 314 314 317 314 315 316 317 320 321 325 326 331 335 335 336 336 337 337 339 342 344 347 350 351 354 352 354 353 354 354 353 359 361 362 362 361 360 360 360 360
296 301 304 306 306 306 305 306 304 306 304 304 300 293 299 303 302 304 302 299 303 314 317 317 316 317 317 317 317 317 319 322 323 325 327 333 335 334 334 337 339 340 342 343 346 350 350 348 349 349 351 351 350 353 358 357 361 362 362 361 361 362 361
299 302 304 305 306 305 303 303 305 305 301 302 301 302 304 301 302 299 299 297 302 312 321 319 317 319 318 319 318 318 318 320 322 324 326 330 336 336 335 339 343 344 342 346 349 349 349 350 349 350 351 351 351 352 355 355 359 362 363 363 362 361 360
294 296 299 300 304 304 301 300 303 306 305 304 304 303 305 299 301 302 299 294 301 310 316 318 317 316 316 317 318 319 318 320 320 322 325 327 334 336 335 336 339 343 346 346 347 347 347 347 348 349 351 352 352 350 353 354 356 362 363 363 362 361 360
284 285 286 289 294 298 301 303 303 304 303 303 301 297 302 296 303 304 300 300 307 311 318 316 317 316 317 317 318 318 319 321 319 320 321 329 332 337 337 337 339 339 343 346 347 347 348 348 347 350 352 353 351 351 353 357 359 362 363 363 362 360 360
290 293 297 299 300 299 297 299 301 302 304 304 303 302 300 296 302 300 304 306 307 310 312 314 314 315 315 315 316 317 317 319 321 329 327 322 334 337 336 336 341 342 343 344 349 349 347 346 347 350 352 351 351 351 352 352 354 360 363 363 362 361 360
295 296 296 298 298 295 298 298 299 302 302 303 302 298 295 304 300 296 306 313 306 308 311 317 320 315 316 316 319 317 318 320 318 322 331 338 327 335 336 336 343 344 345 348 350 351 348 346 346 346 350 352 353 354 354 356 358 358 362 363 363 363 361
294 295 295 296 296 296 296 296 297 297 299 299 297 298 300 301 297 295 305 311 307 309 312 316 318 319 321 318 320 320 319 320 324 334 326 323 323 332 332 336 345 341 346 346 349 350 349 346 346 348 350 351 354 355 356 359 356 359 363 363 362 361 361
293 294 295 296 295 295 295 296 298 299 299 299 300 300 302 301 301 304 304 307 306 309 312 316 318 323 322 323 328 331 331 325 330 326 331 329 328 334 337 339 341 348 346 353 355 353 351 349 350 349 351 354 352 354 358 357 359 359 362 362 361 360 360
291 293 295 295 295 294 293 296 297 297 298 298 299 299 300 302 302 304 305 305 305 311 318 318 321 323 324 326 325 325 329 331 333 331 330 333 334 336 337 341 340 345 347 354 360 364 357 354 353 352 354 354 356 356 357 358 360 360 360 361 360 361 362
288 292 293 293 294 294 293 293 294 295 295 295 297 298 301 301 301 303 304 303 304 310 314 318 319 319 321 323 323 325 327 326 330 332 330 332 335 335 336 338 342 345 343 346 344 347 349 351 356 354 358 356 355 353 356 357 358 359 359 359 358 361 364
287 292 293 292 293 292 289 290 293 296 297 298 299 300 303 303 304 302 300 302 310 312 316 317 321 320 320 321 325 325 326 329 332 332 332 333 334 334 336 338 341 343 347 350 350 342 347 348 346 347 351 352 354 356 357 358 359 358 357 358 360 362 365
287 291 292 293 289 283 284 296 299 298 296 297 296 297 300 304 304 303 306 308 310 310 321 319 319 320 321 322 325 330 329 329 328 329 331 331 332 334 336 337 340 343 346 347 349 351 355 358 350 351 352 346 351 355 354 359 357 359 360 360 361 362 365
286 290 291 287 281 284 296 299 300 301 300 300 299 299 301 304 306 306 306 307 308 310 319 321 320 323 323 324 324 325 325 326 325 326 327 329 330 333 334 336 338 342 346 349 350 351 350 354 355 350 350 351 350 353 356 354 358 362 361 362 362 362 365
291 287 286 278 281 293 297 298 300 302 301 300 300 298 301 303 305 306 305 307 309 310 314 318 320 321 322 323 324 322 322 323 323 324 325 327 328 329 332 334 337 340 342 345 346 349 355 353 352 353 348 346 345 344 350 351 353 358 362 362 364 364 366
284 287 285 285 293 291 293 294 297 301 301 304 303 297 304 307 305 306 307 308 309 310 310 313 318 320 321 321 320 321 320 320 322 323 324 326 326 328 330 332 334 339 343 345 347 354 353 354 352 350 348 347 344 342 347 349 352 354 358 363 364 364 365
291 286 283 285 284 281 288 296 305 306 309 310 310 306 303 309 312 314 313 312 314 317 318 318 319 319 317 316 316 317 320 320 321 322 323 325 326 328 329 332 334 337 340 344 349 351 352 353 354 354 349 348 346 348 345 344 347 349 353 360 364 364 365
288 287 283 282 280 285 294 302 305 308 309 310 311 303 297 308 309 312 312 311 313 313 314 316 318 316 312 313 312 315 318 319 320 321 321 323 325 327 329 330 332 334 337 341 345 350 353 352 354 354 355 353 345 348 347 342 343 346 352 358 363 364 365
287 286 284 282 287 285 295 303 305 307 309 307 306 291 293 304 308 310 310 309 311 312 312 316 318 314 310 311 311 316 318 319 320 320 320 323 324 326 328 330 332 334 338 341 344 346 349 354 356 357 354 353 351 343 343 345 344 349 354 358 363 366 366
288 287 287 288 289 295 301 302 307 307 308 303 292 287 299 306 308 309 310 309 311 311 311 314 312 314 314 314 315 317 318 318 319 320 322 322 323 324 326 327 331 333 336 339 341 345 349 355 357 358 351 350 351 347 344 348 349 351 356 360 364 368 367
286 287 286 286 290 296 301 306 305 307 299 289 288 302 306 307 306 308 310 310 310 310 311 311 313 314 316 316 315 316 316 317 318 318 319 320 321 323 325 327 329 331 334 339 342 346 350 353 356 358 357 355 353 355 349 349 353 354 358 363 365 368 367
290 288 285 284 280 298 305 304 303 307 295 298 301 305 308 308 308 307 307 308 310 310 309 312 312 314 314 314 313 314 315 316 316 317 317 317 318 319 321 323 327 331 334 337 342 346 349 353 357 360 355 353 352 357 357 355 356 359 363 364 367 369 368
285 286 284 284 294 297 304 303 296 303 304 307 307 306 305 308 308 306 307 308 307 309 309 309 311 313 313 314 313 314 314 315 316 317 317 317 317 319 321 323 326 330 333 336 339 345 351 355 359 361 357 354 354 358 361 361 359 364 367 368 369 369 367
290 288 291 298 301 301 303 305 304 306 308 309 309 308 307 307 308 309 307 307 308 309 309 309 310 311 313 313 313 313 313 314 314 314 315 315 316 317 319 321 326 329 332 334 339 349 358 362 363 364 362 360 365 365 366 365 364 369 368 368 368 368 368
297 299 300 301 302 303 303 304 307 307 308 310 309 308 306 308 309 310 307 308 307 308 309 309 309 311 313 313 314 313 313 313 313 315 315 316 318 319 320 322 324 328 332 336 345 353 356 360 365 365 366 364 367 368 370 367 370 373 369 368 367 368 367
291 288 301 300 300 301 302 303 306 309 310 309 309 308 308 308 309 309 311 310 309 308 309 309 309 311 313 313 314 313 313 313 312 313 315 316 318 319 319 321 324 327 332 336 346 351 353 358 362 367 355 363 376 376 370 369 372 373 370 368 366 367 367
291 291 297 299 301 302 303 303 303 304 306 307 308 308 309 309 310 310 310 311 309 309 308 310 309 310 312 313 313 312 312 312 312 313 316 317 318 319 320 322 324 329 332 333 343 347 351 354 358 363 362 360 368 369 366 363 370 371 368 366 366 367 366
293 297 299 298 299 301 303 303 304 303 305 305 306 308 308 309 308 309 310 311 310 310 309 310 310 310 312 313 313 312 313 313 312 314 316 318 319 319 320 322 326 330 330 330 339 344 345 348 354 352 355 355 363 369 374 368 374 369 368 363 366 366 364
289 290 292 296 290 291 296 300 302 303 304 305 305 306 307 308 308 309 309 310 311 311 311 310 311 311 312 314 314 313 313 313 313 314 316 319 319 319 321 324 327 328 328 330 337 340 340 344 345 348 348 352 355 352 349 358 375 369 368 366 367 364 363
286 293 296 297 296 295 298 300 302 303 304 305 304 305 306 306 308 309 309 309 310 311 311 312 311 312 313 314 314 314 314 314 314 315 316 318 318 319 322 324 324 325 326 329 333 337 339 340 341 341 344 346 349 352 352 349 349 363 371 367 366 365 363
295 297 297 298 296 295 298 301 302 302 304 304 304 306 307 307 307 308 308 309 309 310 311 312 314 313 314 315 315 314 316 314 316 316 318 318 320 322 323 324 322 323 324 325 328 333 337 338 338 340 341 343 346 350 354 353 349 343 344 360 365 364 364
294 299 300 300 300 299 302 302 302 303 305 305 304 304 306 307 308 310 309 309 311 311 310 311 313 315 314 314 315 315 316 316 318 317 317 318 319 321 322 323 323 324 323 324 326 330 331 332 334 337 337 337 341 345 351 357 352 347 345 340 343 357 364

ECMWFFLT2_sfc_thetae_075.txt.gz
Theta_e
302 302 306 307 307 293 300 301 295 298 303 299 296 298 299 297 293 290 301 299 299 303 304 305 306 307 307 308 321 329 329 331 331 330 331 333 335 337 338 339 339 339 341 342 342 342 345 346 346 346 347 349 350 351 353 352 353 354 354 356 354 352 351
303 305 305 306 307 306 301 295 298 305 306 303 299 290 294 292 288 292 298 295 296 296 292 304 304 303 305 306 311 329 330 331 329 330 331 333 335 338 338 339 339 341 342 343 343 344 345 346 347 346 347 348 351 353 353 353 354 354 354 356 355 354 352
301 304 304 302 307 308 302 300 307 297 292 291 296 297 287 288 288 290 294 297 298 298 299 302 301 303 304 305 311 328 328 330 329 330 331 333 336 337 337 338 339 340 343 343 343 344 346 347 348 347 348 349 350 354 355 355 355 356 356 357 357 356 355
299 300 300 293 298 305 307 307 303 304 298 295 293 298 295 294 288 292 290 295 291 304 303 302 303 304 304 306 306 326 328 330 330 330 331 334 335 336 337 339 339 340 342 344 344 344 345 346 347 348 348 349 350 353 355 355 356 357 357 357 358 357 356
298 291 297 294 295 294 297 298 297 299 302 303 299 301 296 292 290 289 290 288 296 302 307 307 306 305 306 306 308 326 328 330 330 331 332 334 335 335 336 338 339 340 341 343 345 345 346 347 348 349 348 348 350 352 355 356 355 356 357 357 358 358 357
291 293 299 298 298 299 297 296 294 296 294 294 291 289 300 297 293 287 289 289 297 305 312 311 309 313 308 308 309 317 327 329 330 332 333 333 334 335 337 338 339 340 341 342 345 346 346 347 348 348 348 349 350 351 354 356 357 357 357 357 357 357 357
291 295 298 301 301 301 300 299 297 299 297 298 294 285 293 296 296 298 296 293 296 307 310 311 311 310 310 309 310 312 326 329 331 333 334 334 334 335 337 338 339 339 340 342 344 347 347 347 349 349 349 350 351 352 354 356 357 357 358 357 357 357 357
296 298 300 301 300 299 297 299 299 298 296 298 296 296 297 293 295 292 294 293 295 306 308 310 312 315 316 313 312 311 318 329 331 333 334 333 333 334 337 338 339 339 340 341 343 345 346 346 347 348 349 349 351 353 355 356 357 357 358 358 358 357 356
287 290 294 295 299 299 296 296 299 299 300 302 301 300 301 296 295 295 294 289 294 304 312 312 314 317 320 319 313 313 311 315 321 331 333 333 333 335 335 337 339 341 341 341 343 345 345 346 347 348 349 349 350 350 353 353 357 359 359 359 358 358 357
279 280 281 285 288 292 295 297 297 298 298 297 297 294 294 287 295 294 293 294 300 305 309 312 316 318 319 322 325 324 317 313 314 327 332 333 334 334 336 337 338 338 339 341 343 345 345 346 348 348 348 349 349 349 351 352 353 355 357 360 359 358 357
284 287 289 295 296 293 290 293 294 294 296 298 298 296 294 290 294 292 295 299 298 300 304 306 311 318 318 321 323 325 328 329 329 319 323 332 333 333 336 337 337 337 338 338 342 345 346 347 348 348 348 348 349 349 349 352 353 354 356 358 359 358 357
290 291 291 293 294 290 291 291 291 294 295 296 296 293 291 297 293 287 299 299 297 299 303 305 307 317 317 320 323 324 326 329 330 331 332 334 332 332 334 335 334 334 337 339 342 345 346 346 347 348 348 349 349 348 349 350 352 354 356 357 358 358 357
291 292 292 293 292 292 292 292 292 292 293 293 292 293 296 297 293 290 297 299 298 300 304 306 309 317 317 321 322 324 329 330 330 330 330 331 334 338 339 340 336 335 336 339 342 344 345 346 346 346 348 348 349 349 349 350 351 352 355 356 357 358 357
290 291 291 292 291 291 292 292 293 293 293 293 294 294 295 295 294 296 297 298 299 302 305 308 312 319 321 322 324 326 327 327 327 328 328 330 331 333 335 339 341 343 341 341 342 343 344 345 344 345 346 347 349 349 348 350 351 353 355 355 356 357 357
288 291 293 292 292 291 290 291 292 292 292 293 294 294 295 298 296 297 298 298 299 306 308 315 319 320 322 321 323 323 324 324 325 326 326 328 330 331 333 336 339 341 343 343 345 346 342 344 344 345 345 347 348 349 349 350 351 353 355 354 356 356 357
286 290 291 291 292 291 290 289 291 291 291 290 292 292 295 295 294 296 296 295 297 305 313 317 320 321 320 318 319 319 320 321 323 323 324 325 326 328 330 332 334 337 340 343 343 341 341 341 343 346 348 349 349 348 349 349 351 353 354 354 355 356 357
285 290 291 290 290 289 286 287 290 292 292 293 294 295 297 297 297 293 291 294 302 306 315 316 317 319 318 318 317 316 317 319 320 321 322 322 323 326 327 328 331 333 335 338 341 346 345 342 340 342 344 348 348 347 347 348 347 350 352 351 354 355 357
284 289 289 290 286 279 281 293 295 295 292 293 292 292 294 297 298 296 298 299 302 305 308 314 316 317 317 318 316 317 317 316 317 319 320 321 322 324 325 326 328 330 333 336 338 342 351 348 351 351 349 346 347 350 351 351 351 351 349 346 347 352 357
283 287 288 284 278 280 292 296 296 297 296 296 301 299 299 302 302 299 299 300 307 314 314 314 318 320 318 316 315 316 317 317 317 317 318 319 321 322 323 324 326 328 330 334 335 340 342 349 349 343 344 345 346 348 349 350 351 351 351 348 346 344 347
287 285 283 276 279 290 294 295 296 298 297 302 301 298 301 306 307 308 307 309 312 313 314 316 318 322 321 317 316 315 316 317 317 316 317 319 320 321 323 324 325 327 329 330 332 335 341 345 346 351 346 345 346 347 350 349 349 349 350 349 347 347 347
281 283 282 283 290 289 291 291 293 295 297 301 299 294 299 306 306 306 306 308 310 311 312 314 317 319 320 317 312 315 315 316 317 317 320 319 320 321 323 324 325 327 329 330 332 335 337 340 344 347 351 352 346 345 345 349 347 348 349 348 347 347 348
288 282 280 281 280 278 284 293 297 307 307 309 308 301 297 305 305 306 306 306 308 309 310 313 316 318 317 311 309 312 314 315 316 317 318 320 320 320 321 323 325 326 327 329 332 335 336 339 343 347 351 355 352 348 343 347 347 347 348 347 348 348 349
287 284 279 278 275 281 290 295 303 305 306 307 308 299 291 303 304 305 306 306 307 307 308 311 314 312 307 307 308 311 313 314 316 316 316 318 319 319 320 321 322 323 325 328 332 335 336 337 341 344 346 348 350 351 351 344 347 347 347 348 349 349 350
286 285 281 279 284 281 294 300 302 304 305 305 300 287 287 300 305 305 305 304 305 306 308 310 310 307 303 304 307 312 313 314 314 315 316 316 317 317 319 321 322 324 327 328 330 332 334 336 341 343 345 347 348 350 351 351 345 344 347 349 350 351 353
287 286 284 285 286 294 298 299 302 303 306 302 286 282 294 302 304 305 305 305 305 305 306 307 305 308 310 310 311 316 313 313 313 315 317 317 317 317 319 320 325 323 325 327 328 331 334 337 340 343 346 346 347 349 351 349 348 346 345 348 350 351 355
284 285 283 284 287 297 300 302 303 306 299 286 284 297 301 302 304 305 306 305 306 306 305 306 306 309 311 314 318 313 313 313 314 314 314 316 318 319 320 322 322 322 323 324 327 330 333 336 339 341 344 345 347 348 350 351 351 349 346 345 347 350 358
287 285 283 282 278 293 300 300 301 304 293 292 298 300 304 307 305 305 305 305 306 306 305 307 307 308 310 311 313 312 313 314 314 312 312 313 317 317 318 319 321 322 322 323 325 328 332 335 338 342 345 347 349 351 350 351 354 352 346 343 347 351 356
283 283 281 282 291 295 301 298 292 298 302 303 304 304 302 305 306 305 304 305 306 306 306 306 307 308 309 310 311 312 313 314 314 312 312 314 316 319 320 319 320 322 322 324 326 330 332 335 340 348 353 354 356 356 355 357 356 353 345 346 346 351 358
288 285 289 291 295 300 301 300 300 302 304 307 306 305 304 303 304 306 305 305 306 307 306 306 306 306 308 309 311 311 311 312 313 312 312 314 315 317 317 318 321 322 322 324 327 328 331 334 341 349 354 353 353 352 357 360 357 353 346 348 351 350 354
296 297 297 299 300 300 300 303 304 304 305 306 307 306 303 304 305 306 304 306 306 307 308 306 306 306 308 309 310 311 313 311 313 314 312 314 316 318 318 319 320 322 324 325 325 326 328 334 342 345 346 347 345 348 353 358 357 353 349 349 352 354 356
289 285 300 296 297 297 298 301 305 305 305 305 305 305 306 305 306 306 307 306 306 307 307 306 306 307 308 309 310 311 313 312 311 313 312 314 316 317 317 319 321 322 322 323 323 325 327 332 338 340 340 342 344 347 350 353 360 355 351 350 353 355 357
288 288 293 295 296 297 298 302 299 300 301 303 304 304 305 305 306 307 307 308 307 307 307 307 306 307 308 309 309 311 312 312 311 311 313 314 315 317 318 319 323 322 322 322 321 323 325 330 332 335 337 339 341 343 348 351 352 358 354 352 353 356 358
291 294 296 295 295 296 299 298 299 300 301 301 302 303 303 304 304 306 307 308 308 308 308 309 308 307 308 309 310 311 310 311 311 312 312 313 315 316 317 319 322 322 322 322 320 322 324 328 328 329 333 337 339 338 343 351 351 355 357 353 354 357 358
286 287 290 294 287 288 292 295 297 299 301 302 302 302 302 303 303 305 305 306 308 308 309 309 309 308 307 309 310 311 312 311 312 313 314 314 315 316 318 320 321 322 324 323 320 321 323 325 325 326 329 331 335 338 339 344 350 348 354 356 356 358 359
285 292 295 297 295 294 294 296 298 299 301 301 301 301 302 303 304 305 305 304 305 306 308 310 310 309 309 309 311 311 312 312 313 313 313 314 314 315 319 319 320 321 323 323 320 321 321 323 323 324 326 327 328 334 335 338 344 348 346 351 357 358 357
296 298 297 298 296 293 295 297 298 300 301 301 300 302 303 303 303 304 304 305 304 305 307 308 310 310 309 310 311 311 313 314 314 315 315 316 316 318 319 319 321 322 322 319 319 320 320 322 321 322 324 325 325 329 330 333 339 346 345 343 341 340 346
294 299 299 300 299 299 301 301 300 300 302 303 302 301 302 302 304 305 304 305 306 306 307 308 309 311 310 311 311 312 312 314 315 317 318 318 318 319 318 317 320 322 320 318 319 319 320 321 321 321 322 323 324 327 327 329 332 341 344 342 341 341 341

ECMWFFLT2_sfc_thetae_078.txt.gz
Theta_e
298 297 299 298 301 293 296 298 293 294 297 297 293 296 296 296 291 286 294 295 296 299 303 304 304 302 309 317 323 324 325 330 332 332 332 333 335 336 337 337 337 338 340 339 339 340 340 341 342 342 342 343 344 343 344 344 345 347 348 349 347 346 346
298 300 299 299 301 300 297 294 293 300 301 299 292 286 288 288 284 286 294 290 292 294 292 301 300 301 302 315 320 323 325 329 330 331 332 333 334 336 337 338 338 338 340 340 339 341 341 341 342 343 343 344 346 345 345 344 345 346 348 349 348 347 345
297 300 300 298 300 301 296 295 303 296 288 291 291 291 284 285 285 286 290 293 295 293 292 299 299 300 302 303 316 321 323 327 329 330 331 332 334 335 336 337 337 338 339 340 340 340 342 342 344 344 345 346 346 347 346 346 346 346 348 350 350 349 347
296 296 296 286 291 298 300 301 298 299 296 292 291 290 289 288 284 288 286 291 290 299 296 301 300 302 307 313 312 319 323 327 329 330 331 331 332 334 335 336 337 338 339 340 341 340 341 342 343 344 345 346 346 347 348 347 348 348 348 350 351 349 348
294 288 291 289 291 289 292 293 293 295 295 297 295 295 291 288 285 284 285 284 289 299 306 310 313 315 318 320 315 316 323 327 329 330 330 331 332 333 334 336 337 338 339 340 342 341 343 344 344 345 345 346 347 348 348 348 347 348 348 350 351 350 350
287 289 296 295 295 294 292 291 291 293 292 290 286 286 295 296 288 284 285 284 292 301 308 308 315 318 321 322 322 316 321 326 328 329 330 331 332 333 334 336 337 338 339 340 341 342 342 344 344 344 345 346 347 348 349 349 348 348 349 350 351 351 351
289 293 296 299 298 297 297 296 293 295 293 292 289 283 287 292 292 296 291 287 292 304 306 307 312 319 322 324 325 323 323 326 328 329 331 331 332 333 335 336 337 339 339 340 341 341 341 343 344 344 345 346 347 348 349 350 349 349 350 351 352 353 352
293 295 297 299 299 298 294 295 295 293 290 291 290 290 292 291 291 288 288 289 290 303 306 307 309 319 323 325 325 325 325 326 328 329 330 330 331 333 336 338 338 339 340 341 341 341 341 342 343 344 345 346 347 349 350 351 350 351 351 352 352 353 352
285 288 291 293 296 295 291 290 293 293 293 294 294 295 295 290 292 292 289 285 289 300 306 306 308 319 321 323 325 325 324 326 327 328 330 331 331 333 335 336 337 338 338 340 341 341 341 342 343 344 345 345 346 347 350 351 351 352 353 353 353 353 353
276 277 278 282 284 288 290 293 292 293 292 291 291 287 289 283 292 292 289 289 295 299 303 304 306 317 319 322 323 324 325 325 328 326 330 333 333 333 334 336 336 337 338 339 341 341 342 342 343 344 345 345 346 347 349 352 352 353 353 354 354 354 354
281 282 286 290 293 289 286 289 290 291 292 293 292 292 289 285 289 288 290 293 292 295 299 301 303 315 318 319 320 321 322 323 326 330 332 332 333 334 333 335 336 337 337 338 339 341 342 343 343 344 345 345 346 346 348 351 353 353 354 354 354 354 354
287 289 288 290 291 287 288 288 288 290 291 291 290 287 285 292 287 282 292 294 291 293 297 301 306 313 317 319 320 322 321 321 321 323 327 334 329 331 333 335 336 334 336 337 338 340 342 343 344 345 346 346 346 347 347 350 353 354 355 355 354 354 354
289 290 290 291 290 290 289 289 289 289 290 290 288 288 290 291 287 285 291 293 292 295 299 302 314 315 316 316 319 323 322 321 320 320 321 322 324 325 326 328 332 334 337 337 338 340 342 344 344 345 346 346 347 348 349 351 353 354 355 355 354 354 354
289 290 290 292 290 290 290 290 290 290 290 290 290 290 291 290 289 291 292 294 296 297 301 309 316 317 315 316 318 321 322 319 319 318 318 319 320 322 323 325 327 329 332 335 340 342 342 345 344 345 345 346 346 347 349 351 353 354 355 355 354 354 354
287 289 292 291 291 290 288 290 290 290 289 290 290 290 291 295 292 293 293 292 293 298 306 312 316 315 315 315 315 316 321 321 319 317 317 318 319 320 322 323 324 327 330 331 334 337 340 342 346 344 345 346 347 348 348 351 352 354 355 355 355 355 354
283 288 289 290 290 290 288 288 289 289 288 287 289 289 292 290 289 290 290 289 291 298 306 314 314 312 311 310 312 313 316 322 320 317 317 317 317 319 322 324 323 324 327 329 330 331 335 336 339 345 346 345 347 347 348 348 351 353 354 354 354 355 356
281 288 289 288 289 287 284 285 287 289 289 291 291 293 296 295 299 290 288 291 301 304 309 310 310 310 309 309 310 311 313 316 320 319 317 316 317 318 320 322 323 323 324 326 329 331 333 334 337 341 345 346 346 347 347 348 350 351 352 353 353 354 355
281 287 288 289 283 277 279 289 293 292 290 290 289 290 295 297 304 301 303 305 309 310 309 309 309 308 308 309 311 313 312 313 315 318 317 316 318 318 319 321 323 324 323 324 327 329 331 334 338 340 343 345 348 349 349 349 349 349 350 350 351 352 354
280 286 287 282 275 278 289 293 294 295 294 293 292 295 299 303 304 305 304 305 305 307 308 309 312 311 311 311 311 312 314 315 314 314 317 317 317 317 318 318 320 322 322 323 326 327 330 335 338 340 339 343 346 348 350 348 349 349 350 349 350 351 352
284 282 280 272 275 287 292 293 294 296 296 295 298 296 302 303 303 303 302 304 305 306 307 309 311 315 312 311 311 312 314 317 314 314 315 318 317 318 318 318 319 320 323 325 327 328 334 335 336 339 339 342 344 349 349 348 348 349 349 349 349 349 350
278 280 279 281 287 287 289 289 291 292 293 297 295 289 294 302 303 302 302 303 304 305 306 308 309 312 315 310 308 311 314 315 316 314 317 318 320 318 319 319 320 321 322 324 327 330 332 334 336 340 341 341 342 341 344 348 347 348 348 348 348 348 349
287 282 278 279 279 275 282 290 297 302 303 302 302 297 293 303 302 304 303 302 303 303 305 306 307 311 311 305 305 309 312 314 315 315 315 319 321 319 319 320 321 322 323 324 327 328 328 330 333 337 341 343 341 341 342 345 346 347 348 347 348 348 348
285 283 279 276 273 280 288 294 298 300 301 302 301 296 289 301 301 303 303 302 303 303 303 304 306 305 301 300 304 308 312 313 314 313 313 315 320 320 321 320 320 321 322 324 326 327 327 328 330 333 337 342 341 341 342 343 346 345 346 347 348 349 349
283 283 280 279 282 277 290 296 297 298 301 302 296 284 286 300 301 303 303 302 302 303 304 305 303 301 297 299 304 311 312 315 316 314 313 312 316 320 320 321 323 323 324 324 324 324 325 327 330 332 334 337 340 341 342 344 346 346 345 346 348 350 351
286 286 282 284 286 293 295 296 297 298 302 299 286 280 290 298 300 302 303 303 303 303 303 303 299 303 305 306 308 314 314 313 315 316 315 316 316 318 320 321 323 321 322 323 323 324 326 328 330 332 334 335 338 341 342 344 346 349 351 350 349 349 350
280 283 281 282 286 295 295 298 298 300 297 284 283 294 299 299 300 304 304 303 303 303 303 302 302 304 307 309 310 310 314 315 313 313 314 315 316 317 321 323 322 321 322 323 324 325 326 328 329 330 333 335 339 342 346 349 352 356 356 355 353 349 348
286 284 282 281 278 293 298 297 296 302 290 289 297 298 300 304 303 303 303 303 304 304 302 304 304 305 306 307 308 309 310 313 312 311 311 312 314 315 317 319 321 322 321 322 322 323 325 326 328 330 334 338 341 342 341 343 345 346 348 351 355 354 349
279 280 279 280 289 291 300 296 289 293 297 299 300 301 299 302 302 302 302 302 304 304 303 303 304 305 305 306 307 308 309 312 312 313 312 313 314 316 318 318 320 322 322 322 322 323 323 325 327 330 332 332 334 336 337 340 340 341 344 348 352 354 351
283 279 283 287 292 296 300 300 298 298 300 302 303 302 301 301 301 303 301 301 303 304 305 304 304 304 305 305 307 307 308 311 311 310 311 312 314 315 316 317 319 322 322 321 322 320 321 324 326 328 328 327 329 330 333 336 336 337 340 345 348 351 352
292 294 294 296 295 297 297 298 299 301 302 303 303 301 299 301 302 302 301 302 303 304 304 304 303 304 304 305 306 307 308 310 312 313 313 312 314 315 317 317 318 321 323 322 320 319 320 323 323 325 325 326 326 328 329 331 334 335 336 339 344 348 351
286 282 295 294 294 295 295 295 299 300 299 298 299 299 300 300 301 301 302 302 303 304 304 303 303 304 305 305 306 307 308 309 311 311 311 311 312 313 314 317 318 320 321 320 318 318 319 321 321 323 323 324 326 327 327 328 330 330 332 335 341 346 349
286 287 291 292 294 294 295 296 295 295 296 297 298 299 299 300 302 302 302 303 303 304 303 304 304 305 306 305 305 306 307 309 310 310 311 311 311 313 315 316 319 319 320 319 317 317 319 319 320 321 322 323 325 325 325 327 328 328 330 333 337 341 346
288 291 293 293 293 293 295 297 297 297 297 297 297 298 299 299 299 301 302 303 303 304 304 304 304 304 305 306 306 307 307 308 309 311 310 310 311 312 313 315 319 318 320 319 317 317 317 318 320 320 321 322 324 323 323 325 326 326 328 331 335 339 345
283 284 287 291 286 286 290 293 295 296 297 297 297 297 298 299 299 300 300 301 303 304 304 304 304 303 304 306 306 307 308 308 310 311 311 311 311 312 314 317 317 317 321 319 317 317 317 319 319 319 320 321 323 322 322 324 325 325 328 330 334 340 343
283 289 292 293 292 292 293 294 296 297 298 298 297 296 297 298 300 301 300 300 300 301 303 304 304 304 304 305 306 307 307 308 310 312 313 312 312 312 314 316 316 316 319 320 317 317 316 318 318 319 319 320 321 321 321 322 323 324 326 330 335 341 340
291 293 293 294 293 292 294 296 297 298 299 298 298 299 300 300 301 301 301 301 300 300 302 303 305 305 305 306 307 306 308 309 310 312 314 314 313 315 317 317 317 316 319 318 316 316 316 317 317 318 318 319 319 320 321 322 323 323 325 328 334 339 339
291 295 296 297 296 296 298 298 299 299 300 301 299 299 299 300 301 302 301 301 302 301 301 302 304 305 305 305 306 307 307 309 312 313 317 318 318 317 317 318 316 315 318 317 316 316 316 318 318 318 317 317 318 318 320 321 322 322 324 327 331 338 340

ECMWFFLT2_sfc_thetae_084.txt.gz
Theta_e
294 294 295 295 295 288 293 293 290 292 294 293 290 295 291 288 285 287 288 290 294 298 300 305 304 306 314 318 319 319 320 321 322 326 330 331 332 333 334 334 335 336 337 337 337 336 336 337 336 336 337 338 339 340 340 341 342 343 344 345 345 346 346
294 296 295 294 295 296 290 287 289 294 296 293 289 285 283 281 281 284 288 290 290 291 291 302 300 301 308 315 317 318 318 319 320 322 325 331 332 333 335 335 336 337 337 337 337 337 337 337 337 337 337 338 339 340 341 341 342 342 343 344 345 345 346
293 295 293 292 295 297 292 291 296 292 288 290 287 286 282 281 282 284 288 290 291 292 292 296 296 298 303 314 315 316 317 318 319 321 323 325 332 334 334 334 335 336 337 337 337 337 337 338 339 338 338 338 338 339 341 341 341 342 343 344 345 346 346
291 292 292 284 288 293 295 294 291 292 291 289 286 289 285 286 281 282 285 287 288 294 294 297 296 298 307 314 313 314 316 318 319 320 321 323 327 333 334 335 336 336 337 337 337 337 337 337 338 338 338 338 337 339 340 341 342 343 343 344 345 345 346
289 286 288 286 286 285 287 288 286 288 288 291 291 290 288 287 282 280 283 282 288 294 299 298 298 299 314 315 314 314 315 318 319 320 321 322 326 331 334 335 336 337 337 338 338 339 339 338 339 339 338 338 338 339 339 340 340 341 342 343 344 345 346
284 286 291 291 290 290 288 286 285 286 285 284 283 286 289 288 283 280 282 283 290 296 302 300 301 305 317 317 316 314 315 317 318 319 321 322 323 329 334 335 336 337 338 338 339 339 339 338 338 338 339 338 338 338 339 340 340 340 341 343 344 345 346
285 288 292 293 293 291 290 290 286 288 288 286 281 280 284 286 287 291 288 285 289 300 301 302 307 316 317 318 318 315 315 316 318 319 321 321 323 324 327 335 336 339 340 340 339 338 338 338 338 338 338 338 338 338 339 340 340 340 341 343 344 345 345
287 290 291 293 293 291 288 289 290 288 286 286 285 283 286 284 284 282 283 285 289 298 300 301 313 315 317 318 318 315 315 315 317 318 318 320 321 322 325 326 331 335 341 339 339 338 338 338 338 338 338 339 339 339 339 340 340 340 341 342 344 345 345
280 282 286 287 290 291 287 285 288 288 288 288 289 288 289 284 285 285 282 282 287 294 299 300 313 314 315 315 316 317 314 315 316 317 318 319 320 321 322 323 325 327 329 331 335 340 340 339 339 339 339 339 339 339 339 339 340 341 342 343 343 344 345
276 277 277 277 281 284 287 288 288 289 288 287 286 283 284 278 287 286 283 283 288 293 296 302 310 311 313 314 315 316 316 316 315 317 318 318 319 319 320 322 323 324 326 329 330 332 337 341 338 343 341 341 340 340 340 341 341 342 342 343 343 343 344
276 278 282 287 293 285 282 286 287 287 289 288 288 285 281 281 283 284 285 287 287 289 292 301 307 308 310 311 312 312 312 315 316 318 319 319 319 320 320 321 321 323 324 327 329 331 333 336 339 340 340 340 340 340 341 341 341 342 343 343 343 343 343
284 285 287 287 290 285 286 285 286 287 288 287 287 284 284 286 282 279 288 291 286 287 293 303 305 306 309 311 310 311 311 313 315 316 318 322 319 320 321 321 320 321 322 325 328 330 331 334 336 338 340 341 341 341 341 342 342 342 343 343 343 344 344
286 285 286 288 287 287 287 287 286 287 287 287 285 287 288 286 283 280 285 288 288 289 298 304 305 306 308 310 310 311 312 313 314 315 316 316 317 318 319 320 321 321 322 323 326 329 331 332 334 336 338 339 343 343 343 343 343 343 344 343 343 343 344
285 286 287 288 286 287 286 286 287 287 286 287 288 286 287 287 286 287 288 288 289 294 301 305 306 308 309 310 311 311 310 311 312 312 314 315 316 317 318 319 321 322 322 324 325 328 330 330 332 334 336 339 339 341 343 343 344 345 345 344 343 343 343
284 286 289 286 287 287 285 285 286 286 286 286 286 286 289 293 289 291 293 290 289 293 304 307 307 308 310 309 308 308 309 310 311 311 312 314 315 316 317 318 320 321 322 323 325 327 328 330 331 332 335 338 338 339 340 343 345 346 346 345 344 344 344
279 283 285 285 286 286 284 283 284 285 285 286 287 287 289 289 288 290 294 292 294 301 305 308 306 307 307 306 307 307 307 309 310 310 311 312 314 315 316 317 319 319 320 322 323 325 327 329 330 332 334 335 336 337 339 340 343 347 347 346 345 345 346
277 281 285 285 284 279 280 283 285 287 287 289 288 288 292 293 293 292 291 293 300 301 306 304 304 305 306 307 307 307 308 308 309 309 310 311 313 315 316 317 318 318 319 321 322 324 327 329 330 332 334 334 335 336 339 340 344 347 348 347 346 346 347
277 281 283 285 277 274 276 286 290 290 287 288 286 286 289 291 299 295 300 300 301 302 302 302 302 304 305 307 310 312 309 308 308 309 310 311 313 315 316 317 318 319 320 321 322 324 326 329 330 332 335 334 334 337 339 343 344 345 348 349 348 347 348
278 281 282 279 274 275 285 290 292 293 291 291 288 289 295 298 299 299 299 300 300 301 302 302 303 304 308 310 309 310 312 310 309 308 309 310 312 313 315 316 317 319 320 321 322 323 325 328 329 331 332 334 335 337 339 342 343 343 345 348 350 350 349
279 278 276 272 274 282 288 289 294 299 295 296 293 292 297 298 298 298 298 299 300 301 302 303 304 304 305 309 309 309 310 312 311 309 309 310 312 313 315 315 317 318 319 321 322 323 328 327 328 329 329 332 335 337 340 341 344 342 343 344 344 346 349
277 278 276 276 283 284 286 288 291 293 290 292 290 286 289 298 298 299 298 299 300 301 302 302 303 304 306 304 306 307 307 308 312 312 312 312 313 314 315 316 318 320 320 321 323 325 326 326 328 327 328 332 334 338 339 341 343 343 343 342 342 344 345
280 279 275 276 276 274 279 287 295 297 297 296 296 293 289 297 297 299 298 298 299 299 301 301 302 303 304 301 302 305 307 308 309 312 314 314 314 315 315 317 318 319 321 322 324 325 324 325 325 325 327 331 333 338 340 341 343 343 341 339 340 341 344
280 280 276 273 270 277 283 288 293 296 297 296 297 289 284 295 295 297 298 298 299 299 299 300 302 299 296 297 300 304 306 307 309 309 312 314 314 314 315 315 316 318 320 322 324 324 323 323 323 324 326 329 330 336 339 339 342 339 338 338 338 338 339
281 279 275 275 279 275 285 290 294 296 296 297 290 279 280 293 294 298 299 298 299 299 300 301 299 297 294 296 300 306 307 308 308 309 311 312 313 313 314 316 317 319 321 321 321 321 322 322 322 323 324 325 328 331 333 336 336 333 332 333 335 336 337
284 285 278 279 282 289 292 291 295 295 297 294 281 277 285 293 295 298 299 299 300 300 299 299 296 299 301 302 304 306 307 307 307 309 311 312 313 313 314 315 319 318 319 320 320 321 322 322 321 322 323 322 324 327 330 333 331 331 331 331 334 336 336
278 279 279 279 282 287 293 294 295 296 292 281 279 288 293 292 296 299 300 299 300 300 299 299 298 300 301 303 304 305 306 306 307 307 309 311 312 313 315 317 318 316 317 319 321 322 322 320 320 321 321 321 323 324 326 328 328 330 331 331 333 334 334
283 283 281 278 273 284 296 296 293 297 286 285 289 293 294 298 298 298 298 299 300 300 298 299 299 300 300 301 301 303 304 305 305 306 307 308 310 310 311 312 315 317 316 317 319 320 322 321 320 321 320 320 320 322 323 325 326 327 328 330 331 331 332
279 280 277 277 283 288 295 291 285 290 295 294 295 294 293 297 297 297 297 298 299 299 298 298 298 299 299 300 301 302 303 304 305 306 307 308 310 311 312 313 314 316 315 316 317 320 322 322 321 320 320 319 319 320 321 324 325 326 325 326 327 328 331
281 280 282 286 288 293 295 293 291 292 295 297 297 296 296 295 295 297 296 296 297 298 298 298 298 297 298 299 301 301 302 303 304 305 306 307 308 310 311 312 315 315 314 315 316 318 320 322 322 320 320 318 318 318 321 323 324 323 323 323 324 325 327
287 289 290 291 290 291 293 296 296 295 296 297 297 297 295 295 295 296 295 296 296 297 297 296 296 297 298 298 299 301 302 303 304 306 307 307 308 309 310 311 312 314 314 315 315 316 318 321 322 321 319 319 318 318 321 322 322 322 322 322 322 324 326
285 281 286 290 291 292 293 294 295 297 297 296 296 295 295 295 296 296 297 296 296 297 297 296 296 297 298 298 300 301 302 302 303 303 304 306 307 307 308 310 313 312 313 313 315 316 316 318 320 319 318 318 319 320 320 320 321 320 320 321 323 324 325
284 285 287 289 291 292 293 293 292 293 294 295 296 297 296 297 297 297 297 297 296 297 296 297 297 297 299 299 299 300 301 301 302 303 304 305 306 307 308 309 312 313 313 313 313 315 316 317 318 319 318 318 319 319 319 319 319 319 319 320 321 322 324
287 289 292 293 292 292 293 294 294 295 294 294 294 295 295 296 296 296 297 298 297 297 297 298 298 298 298 299 300 300 300 301 302 302 303 304 305 306 307 308 311 311 312 314 314 315 316 317 318 318 318 319 319 319 319 319 318 317 318 319 321 321 322
283 285 288 289 286 285 287 289 292 294 295 295 294 294 295 296 296 296 296 297 298 299 299 299 299 298 298 299 300 300 300 301 302 303 303 304 304 305 307 308 309 311 314 314 314 315 316 317 318 318 319 319 319 319 319 318 318 316 318 318 319 321 322
284 290 292 291 291 289 291 292 293 294 294 294 294 294 295 296 296 297 296 296 297 297 298 300 299 299 298 299 300 299 300 300 302 303 303 303 303 304 306 307 307 308 310 314 315 316 317 318 318 319 319 319 318 319 318 318 317 316 317 317 319 320 322
292 293 291 292 292 291 292 292 294 294 295 295 295 296 296 297 297 297 297 297 297 297 298 299 301 300 299 299 299 298 299 300 301 302 303 303 304 305 306 306 307 308 309 311 314 315 317 318 317 318 318 318 318 317 317 316 316 316 316 316 317 318 319
293 296 294 293 293 294 294 294 295 295 297 298 295 296 297 297 297 298 297 298 299 298 298 298 298 299 298 298 299 299 299 300 302 303 305 306 306 306 306 306 307 308 310 312 314 315 316 316 317 318 317 316 317 316 315 315 315 315 315 316 316 317 319

ECMWFFLT2_sfc_thetae_087.txt.gz
Theta_e
299 298 300 299 300 295 299 300 297 300 301 302 298 297 297 298 298 295 300 300 304 308 308 310 313 316 320 322 322 323 324 326 327 327 328 330 332 338 340 340 341 343 343 343 343 343 342 343 344 345 348 350 350 351 351 352 354 354 354 356 356 356 357
300 301 300 300 300 299 300 297 299 301 303 302 300 293 296 295 292 295 300 297 298 300 299 310 313 315 318 320 320 321 323 324 324 326 327 329 331 332 337 341 343 343 344 344 343 343 343 343 344 345 349 350 351 351 350 351 352 353 353 354 354 356 356
298 301 299 299 301 301 299 297 300 298 295 295 299 298 290 290 291 294 296 297 297 300 302 308 310 313 316 318 319 319 320 321 323 324 326 329 331 333 334 338 341 342 343 343 345 343 343 343 345 346 347 347 348 349 350 350 350 351 351 352 353 355 356
296 298 298 292 294 300 299 300 299 298 299 302 297 298 299 299 293 293 293 297 294 302 305 308 312 315 316 318 318 317 319 320 322 323 325 327 329 331 334 336 340 341 342 343 344 344 343 342 343 344 345 346 346 347 349 349 350 352 352 352 353 354 354
297 292 294 291 293 292 296 298 295 297 297 297 299 299 297 296 295 295 294 292 297 302 308 311 314 316 317 318 317 317 319 320 322 323 324 325 328 330 334 337 339 341 342 342 343 345 345 343 343 344 343 344 345 346 347 348 348 349 350 351 352 354 354
291 291 295 294 294 295 294 294 291 292 294 296 294 293 298 296 297 293 295 292 299 302 310 314 315 317 317 318 319 318 319 320 322 323 324 325 326 329 333 336 339 341 343 343 343 345 345 343 343 343 343 343 345 345 345 347 347 348 348 349 352 353 354
292 293 295 298 296 296 296 296 292 295 294 295 297 292 293 296 295 298 300 297 296 303 309 315 316 317 317 317 318 318 319 320 322 323 324 326 327 327 329 334 336 338 342 343 343 343 344 344 343 343 343 342 343 344 345 346 346 347 348 349 351 353 353
294 296 297 298 298 296 295 296 296 295 292 292 293 294 296 296 295 297 297 296 295 300 311 316 316 318 317 317 316 317 318 319 321 322 323 325 326 328 329 331 333 337 340 342 343 346 345 344 344 342 343 343 343 343 343 344 345 347 348 348 350 352 352
291 293 295 294 296 297 293 293 295 295 296 295 294 297 298 294 291 292 297 291 294 298 311 315 316 316 315 314 315 316 316 318 319 321 323 324 327 327 328 329 330 333 336 338 340 343 345 348 344 344 343 343 342 343 343 343 344 346 346 348 348 350 351
283 284 285 288 290 291 293 294 294 295 294 293 295 294 295 291 292 294 296 293 295 300 311 312 314 314 314 315 315 316 316 317 317 320 321 323 324 325 327 328 329 330 332 335 338 340 342 343 345 346 345 344 344 343 344 344 344 345 345 346 347 349 349
289 291 290 291 294 293 290 291 292 293 295 295 295 296 294 291 293 293 293 294 295 300 307 310 311 313 312 312 313 313 314 315 317 319 321 321 322 322 324 326 328 330 331 332 335 338 339 342 344 346 343 344 344 346 344 344 345 346 347 346 347 347 348
291 292 291 292 293 290 291 290 291 293 293 294 294 293 291 295 294 289 295 297 295 299 306 309 310 312 312 312 312 313 314 314 315 316 319 322 321 321 322 323 324 325 328 330 332 334 336 338 342 344 346 346 345 346 344 345 344 345 346 347 348 348 348
291 292 292 293 292 291 291 291 291 291 292 293 291 292 292 293 293 291 294 296 298 303 306 309 310 311 311 311 312 313 314 315 316 316 316 317 318 320 320 321 322 323 324 326 328 330 333 336 338 341 343 345 347 350 347 346 345 345 348 348 348 348 348
291 292 292 292 291 291 290 290 291 292 292 292 292 292 292 293 294 294 297 299 301 305 307 310 310 312 312 312 314 314 314 313 314 314 315 315 317 318 319 321 322 322 323 324 325 327 329 332 335 337 340 342 343 345 347 349 347 346 347 348 349 348 347
289 291 292 292 291 291 289 290 291 291 291 292 292 291 293 295 294 296 299 301 301 307 311 310 311 313 313 313 312 312 313 313 313 313 313 314 315 317 318 320 321 322 322 323 324 325 326 328 331 334 337 340 342 344 346 347 349 352 348 349 348 348 348
287 289 290 290 291 290 289 290 291 291 290 290 292 292 293 293 293 296 297 299 300 306 310 311 311 312 312 311 312 312 312 313 313 312 312 313 314 315 316 318 320 320 321 322 323 324 325 326 328 330 333 337 340 341 344 348 350 352 353 350 348 350 350
286 290 290 290 290 288 287 288 290 291 292 293 293 294 295 295 296 294 293 299 306 307 310 309 309 309 310 311 311 312 313 314 313 313 313 313 314 314 316 317 318 318 320 321 322 323 325 326 327 328 329 331 335 340 344 348 352 352 353 352 355 352 352
287 289 290 291 287 281 283 293 294 294 292 293 291 292 295 301 302 301 306 305 307 307 307 306 306 307 309 310 312 313 312 312 313 314 314 314 314 315 315 316 317 318 320 321 322 324 326 328 328 329 328 328 331 338 345 349 352 353 354 355 355 357 355
287 289 289 286 280 283 292 295 298 299 298 296 294 294 301 303 304 304 304 305 305 306 306 307 307 308 310 311 310 310 311 311 311 312 314 314 314 315 316 316 316 318 320 321 322 323 326 327 328 327 326 327 330 334 341 345 349 350 351 352 352 355 358
290 288 287 279 281 291 294 295 298 301 300 299 300 298 302 303 304 305 304 304 305 306 306 307 308 309 309 312 311 311 311 311 311 310 311 314 314 314 316 316 317 317 318 320 322 324 328 327 327 326 326 328 330 332 339 343 346 347 348 348 347 350 353
285 287 286 286 291 289 292 293 295 298 295 296 295 290 297 302 302 303 303 304 304 305 306 306 307 308 309 310 311 311 310 311 311 311 312 313 315 315 316 317 317 319 320 321 322 325 326 327 326 325 327 328 329 332 335 338 345 344 344 343 343 346 351
290 286 285 286 285 281 289 296 299 301 301 301 301 296 293 300 301 303 303 302 302 303 304 305 306 307 308 305 307 310 309 310 311 312 312 313 315 315 316 317 318 320 320 321 322 323 324 325 325 325 327 328 329 332 334 335 339 340 339 339 339 341 343
288 287 283 283 280 286 295 296 299 301 301 301 302 294 289 298 300 301 302 300 301 301 301 303 305 304 301 302 308 308 308 309 310 310 312 313 314 315 316 316 316 318 320 322 323 323 323 322 324 324 325 326 327 329 332 333 336 335 334 332 333 333 336
289 287 284 283 288 286 294 299 299 300 302 300 297 284 286 298 300 301 301 300 300 301 302 303 302 302 300 302 306 308 308 309 309 310 311 312 313 314 315 316 317 319 322 321 320 320 320 321 324 324 323 323 326 328 329 330 333 333 333 333 332 332 335
289 287 287 288 290 296 298 298 300 301 301 298 287 283 294 301 300 302 301 301 300 302 301 302 299 303 304 305 306 307 308 307 308 310 312 312 312 313 314 315 319 317 317 318 318 319 322 324 323 323 322 321 324 326 328 329 329 330 331 333 333 331 332
287 289 286 287 291 297 301 302 301 302 297 286 287 297 299 301 300 303 302 300 302 302 302 302 302 303 304 305 305 305 305 306 307 308 310 311 312 313 315 316 317 316 316 317 317 318 321 322 323 323 323 322 323 325 325 325 326 328 330 332 332 331 330
288 288 286 284 281 295 302 300 299 301 292 294 298 300 301 301 302 301 301 301 301 302 301 302 302 302 302 303 303 304 305 305 305 307 308 309 309 310 312 313 314 314 315 315 315 316 318 320 322 323 323 323 323 323 323 325 325 327 329 330 331 331 330
286 285 283 284 291 300 303 300 293 299 300 302 302 301 299 303 302 301 301 302 302 302 301 301 301 302 302 302 303 304 304 305 306 306 307 309 310 311 311 312 313 314 314 314 315 316 316 320 321 322 324 322 322 322 323 326 326 327 328 328 329 330 331
290 287 292 298 298 301 304 303 302 305 306 304 304 302 302 301 302 303 301 301 301 301 301 301 301 301 302 302 303 302 303 304 305 305 307 308 309 309 310 310 313 314 313 313 314 316 317 319 321 323 325 324 323 322 324 326 326 326 326 326 326 328 329
297 297 297 299 299 299 301 303 304 303 303 305 304 303 302 303 303 303 301 301 301 301 302 300 301 301 302 302 302 303 303 304 305 307 307 308 310 309 309 310 311 313 313 313 313 313 315 317 317 321 321 323 322 323 324 325 326 325 325 325 325 326 327
291 289 301 297 298 300 301 302 304 306 305 305 304 304 304 303 303 303 303 302 302 301 302 301 300 301 302 301 302 303 304 304 305 305 306 307 308 309 309 310 311 311 312 311 312 313 313 316 318 318 317 320 323 325 325 324 323 324 324 324 325 325 326
292 293 298 299 300 301 302 302 301 302 303 304 305 305 305 304 304 304 303 303 302 302 301 302 301 301 302 301 302 302 303 303 304 305 305 306 307 309 310 311 311 311 311 311 312 312 313 315 317 319 318 319 321 324 324 325 324 324 323 324 323 324 324
295 299 299 299 300 300 300 301 302 303 304 304 304 304 304 304 303 303 303 303 303 302 302 302 302 301 301 302 302 301 302 303 303 304 305 306 307 308 308 309 311 310 311 311 312 312 313 314 316 318 319 319 321 324 325 325 324 322 322 322 323 323 323
291 293 296 300 294 293 299 302 303 304 305 305 304 304 303 303 303 303 303 303 304 303 303 303 302 301 301 301 302 301 302 302 303 304 304 305 306 306 307 308 309 309 311 311 311 312 312 314 315 317 318 320 323 324 325 325 323 322 321 321 322 322 323
292 299 302 303 301 302 302 302 303 305 306 304 303 302 302 303 304 304 303 302 303 303 304 304 303 302 301 301 302 301 301 302 303 304 304 304 304 304 306 306 307 308 309 310 311 312 313 314 314 315 317 319 323 325 325 324 322 321 320 320 320 321 323
301 304 305 304 302 299 303 303 304 303 305 304 303 304 304 304 304 304 304 304 302 302 303 304 304 303 302 302 302 301 301 302 303 303 304 304 305 305 306 306 307 308 308 309 310 311 312 313 313 314 316 319 321 324 325 323 321 320 319 318 318 319 320
299 304 305 305 303 303 305 305 305 305 305 305 303 304 304 304 305 305 304 304 304 304 303 302 304 304 302 302 302 301 301 302 303 304 306 307 306 306 306 307 307 308 308 309 310 311 312 313 314 315 315 316 319 323 323 322 321 319 318 318 317 317 319

ECMWFFLT2_sfc_thetae_093.txt.gz
Theta_e
309 309 311 310 311 300 308 309 304 307 313 310 305 306 306 306 303 301 308 310 313 319 323 326 328 327 328 330 331 332 333 335 337 336 338 340 342 341 343 344 343 344 347 349 348 349 350 351 353 353 357 355 359 360 363 366 367 368 368 368 366 366 364
308 310 310 311 311 311 307 304 308 313 315 312 307 299 303 301 297 300 305 304 308 308 307 324 324 324 326 327 329 331 333 334 333 335 338 340 341 343 344 346 348 349 348 346 350 352 350 349 349 350 355 357 360 360 365 365 367 368 368 367 365 365 366
307 310 309 307 310 313 308 307 313 306 301 301 306 303 296 296 296 300 303 306 307 307 311 318 319 321 323 326 329 329 329 331 333 334 336 339 341 342 342 344 345 348 349 349 350 350 350 354 352 351 352 355 355 359 360 360 360 362 364 365 364 365 366
306 307 306 299 303 309 311 312 308 312 309 305 303 304 306 304 298 298 300 304 302 310 315 318 317 320 322 324 326 327 329 330 331 333 333 336 339 340 342 344 347 344 346 349 350 352 350 347 350 352 354 353 354 357 355 355 356 358 360 361 364 364 364
306 300 304 302 304 301 304 305 305 307 307 311 309 308 305 302 300 299 300 298 305 312 318 317 318 319 322 323 324 327 328 330 332 333 335 336 337 339 342 345 345 346 348 349 349 352 354 355 352 353 352 354 354 355 355 356 362 357 356 357 361 365 363
299 302 307 305 305 306 305 305 304 306 304 303 300 300 308 305 302 298 299 299 308 314 320 319 320 321 322 324 324 325 328 329 331 333 334 336 336 338 340 342 346 347 348 349 349 351 351 352 350 350 351 353 352 353 356 354 357 355 354 355 358 365 364
301 304 306 308 308 308 306 307 305 308 307 306 303 295 301 304 304 307 306 302 305 318 320 320 321 321 321 324 324 325 327 328 330 332 334 335 337 337 339 342 343 345 349 350 349 351 350 351 353 352 353 353 357 353 357 357 355 353 357 358 359 363 363
304 306 307 307 308 307 306 307 307 306 304 306 305 304 306 303 304 302 303 304 306 316 322 321 322 323 323 324 325 324 326 327 329 331 332 334 335 337 339 342 341 340 341 345 349 351 353 353 353 352 350 350 351 351 353 356 350 352 356 358 354 359 363
299 300 303 304 306 306 304 304 306 307 307 307 307 306 308 303 304 304 305 297 304 315 321 321 321 321 321 321 324 325 325 326 327 329 331 333 335 336 338 339 339 340 340 341 342 346 350 349 351 352 352 350 349 354 352 353 356 357 358 355 354 357 360
290 290 291 294 297 300 304 305 303 305 305 305 305 301 305 298 306 306 303 303 312 315 319 318 319 320 320 321 322 324 326 326 327 328 330 332 332 332 334 335 336 337 338 340 340 341 344 347 348 351 353 353 353 351 350 352 351 352 359 357 356 357 359
296 299 301 304 306 304 300 301 303 303 304 306 306 306 303 300 305 304 308 307 309 311 315 316 316 317 318 318 321 321 323 325 327 328 328 328 329 330 331 332 333 335 336 337 339 340 340 341 344 348 349 352 352 354 351 356 355 354 357 350 353 354 359
300 300 300 302 304 302 302 301 300 302 302 305 305 302 300 310 304 298 310 313 309 311 314 316 316 317 318 319 320 321 322 323 325 326 326 327 327 329 329 330 330 331 333 335 336 338 338 339 341 343 350 350 353 352 352 352 358 354 352 354 352 353 354
300 301 300 301 301 302 301 301 300 301 302 304 303 304 305 307 304 302 311 314 311 312 314 316 317 319 318 319 320 321 322 323 325 326 325 324 324 326 326 328 329 329 329 332 333 334 336 337 338 340 343 347 351 352 353 355 354 351 354 356 353 353 353
299 299 300 300 300 299 299 300 300 300 301 302 303 303 305 307 308 311 312 313 313 314 315 316 317 319 319 320 321 322 323 321 324 324 324 323 323 324 324 325 326 328 328 330 331 333 334 334 336 337 339 343 346 349 349 351 352 353 354 354 356 353 353
297 298 298 299 298 298 298 299 300 300 300 301 302 303 305 308 309 311 311 311 311 316 318 317 319 320 320 320 319 320 321 322 322 322 321 322 322 323 324 326 326 327 328 328 329 330 331 332 333 335 337 339 341 345 348 350 352 354 355 355 354 354 355
295 297 297 297 298 298 297 298 298 299 299 299 300 301 305 305 305 309 309 307 309 313 317 317 317 318 318 317 318 319 320 321 322 321 321 321 322 323 324 325 326 326 327 328 328 328 329 329 331 332 335 336 337 341 346 348 351 351 351 352 354 356 356
294 297 296 296 297 296 293 295 298 299 300 302 302 305 305 307 309 307 306 308 313 314 315 313 315 316 317 316 316 318 319 321 322 322 321 321 322 322 324 325 325 325 326 327 329 329 328 329 330 331 332 334 337 341 345 347 351 351 351 348 351 353 356
295 295 295 296 293 288 291 301 303 302 300 301 301 301 303 306 308 307 310 312 315 314 314 313 314 315 316 317 317 319 320 321 320 321 321 321 321 322 322 324 325 326 326 327 328 330 330 330 330 331 332 331 334 339 342 345 348 349 348 348 348 346 349
295 297 296 291 286 290 301 304 304 304 304 303 302 303 304 306 309 312 312 313 313 314 314 315 315 317 318 318 318 318 318 320 319 319 320 320 320 321 322 322 323 325 326 326 327 328 329 330 330 331 330 330 333 335 338 340 344 346 345 345 346 346 347
299 296 293 284 287 299 303 302 303 305 303 302 303 302 305 306 307 311 310 312 313 314 315 315 317 316 315 317 318 318 318 318 318 318 318 320 319 319 320 321 322 323 323 324 326 328 330 331 328 330 330 331 331 331 335 338 341 343 342 343 343 343 343
293 295 293 292 300 299 299 299 301 300 301 300 300 296 301 306 308 310 311 312 312 312 313 314 315 316 315 314 316 318 317 317 317 317 318 319 320 320 321 320 321 323 323 322 324 327 327 328 327 330 331 331 332 331 331 333 336 336 337 337 338 340 341
298 294 292 293 292 289 296 302 305 306 307 307 307 306 302 308 309 311 311 310 310 311 311 312 312 314 311 309 311 316 317 317 316 317 317 318 320 319 320 321 321 323 323 322 323 323 323 325 324 328 331 331 333 333 333 332 335 335 335 334 336 337 338
297 294 291 291 288 293 302 303 306 307 308 306 308 301 298 307 309 309 311 310 310 311 310 311 311 309 305 308 312 316 317 316 316 316 317 317 318 318 318 318 319 319 321 322 322 323 323 323 323 325 327 327 327 331 333 330 333 333 332 333 334 334 335
296 295 290 289 296 294 304 306 305 305 308 303 302 289 291 307 308 308 308 309 309 309 312 312 310 308 306 306 311 313 315 315 316 316 315 316 316 316 317 318 319 320 322 322 321 320 319 322 323 324 324 324 326 328 329 329 330 331 332 333 334 336 337
294 294 294 296 298 306 308 306 306 306 305 302 293 288 301 310 309 309 310 310 310 311 310 310 305 310 312 313 313 313 314 313 314 315 316 316 315 316 316 316 320 318 319 318 318 319 321 323 322 322 323 323 325 327 328 328 330 331 333 335 335 337 337
293 294 292 293 297 305 308 308 306 307 302 292 292 305 311 311 310 309 310 309 310 310 310 310 310 311 312 312 311 311 311 311 312 313 313 314 314 315 317 318 317 317 316 318 318 318 320 320 321 322 323 323 324 326 326 326 329 331 334 335 335 337 336
296 296 292 290 286 303 310 307 305 305 297 301 309 311 311 311 309 308 307 308 308 308 307 308 308 309 308 309 309 309 310 310 311 312 312 313 313 314 315 316 316 315 315 316 316 317 317 319 321 322 322 322 324 325 325 327 328 331 332 333 334 335 337
292 292 289 290 302 306 311 307 301 305 304 311 312 310 308 309 309 308 308 308 308 308 307 307 308 308 308 308 309 310 310 310 311 311 313 314 314 314 314 314 315 316 316 316 316 318 318 319 320 320 322 323 323 324 325 328 329 330 331 332 333 332 335
297 294 298 305 307 309 310 309 309 310 312 313 312 310 310 309 308 309 308 309 310 310 309 309 308 307 308 308 309 308 309 309 309 311 311 312 313 313 314 314 317 317 317 317 317 318 319 320 320 321 321 321 323 323 326 328 329 329 329 329 329 331 333
306 307 306 310 308 308 308 308 312 312 311 312 309 309 307 308 310 311 309 309 309 310 311 308 308 309 309 309 309 309 309 309 310 312 312 313 314 314 314 315 316 317 316 317 316 316 318 319 319 321 320 320 320 323 325 326 327 328 328 328 329 330 330
298 294 306 305 306 307 307 308 311 313 312 311 310 309 309 311 311 310 310 310 309 309 309 308 308 308 309 308 309 310 310 310 310 311 312 312 313 314 314 315 316 315 316 315 315 315 316 318 319 319 320 320 321 322 323 323 323 326 327 327 327 327 328
298 299 306 306 308 309 309 308 309 309 310 311 312 311 312 312 313 312 312 311 309 309 307 309 309 309 309 308 308 308 309 309 310 310 311 312 313 314 315 315 316 316 315 316 316 317 317 318 318 318 318 319 321 322 321 321 322 323 324 325 324 324 326
302 304 306 307 309 308 308 309 310 311 311 311 311 311 311 311 311 311 311 311 310 309 309 309 309 307 308 308 309 308 308 309 310 311 311 312 313 313 313 314 315 314 315 315 316 316 317 318 318 319 319 319 320 322 323 323 324 323 322 323 324 324 324
298 300 303 307 301 301 306 307 308 309 311 311 311 311 311 311 311 311 311 311 311 310 309 309 309 307 309 309 310 308 308 309 310 311 311 312 312 312 313 313 314 314 315 315 315 316 316 318 318 318 319 320 321 321 323 324 324 324 324 324 324 323 325
298 306 308 310 307 307 308 310 311 312 312 311 310 309 310 310 311 312 312 311 311 311 311 312 310 310 310 310 310 309 308 309 311 311 311 311 310 310 312 311 312 312 313 314 315 315 315 317 317 318 318 319 320 321 323 323 324 325 325 324 323 323 325
306 309 309 310 308 307 310 312 313 312 312 311 310 311 311 311 311 311 310 311 310 310 311 310 311 310 310 310 310 309 309 310 310 311 311 311 311 311 311 311 311 311 312 313 313 314 315 315 315 317 316 318 319 319 321 322 324 324 324 323 322 322 323
306 310 310 311 311 311 312 312 312 313 313 312 310 311 311 310 311 311 310 310 311 311 310 309 310 311 310 310 309 310 309 309 310 310 310 310 310 310 310 310 311 311 311 312 312 313 314 315 315 315 315 316 318 319 320 320 321 321 323 324 323 323 325

ECMWFFLT2_sfc_thetae_096.txt.gz
Theta_e
312 312 314 314 315 301 307 308 304 306 312 309 304 305 306 306 303 300 307 310 315 320 322 324 327 327 327 328 329 330 332 333 337 337 339 340 342 342 344 345 345 348 347 350 348 348 347 348 349 353 357 352 351 350 359 362 363 361 361 365 364 364 364
309 313 314 314 314 312 307 303 307 313 315 312 306 298 302 300 296 299 307 307 308 311 308 324 324 323 326 327 328 330 332 334 334 336 338 340 341 341 342 346 347 347 345 347 349 348 348 349 350 355 355 355 352 351 357 359 364 361 360 361 362 362 363
309 312 312 310 314 314 307 307 312 304 300 300 305 303 295 296 295 298 302 309 309 311 311 317 320 320 323 328 328 328 330 331 333 336 338 340 341 341 343 344 344 344 345 346 349 350 351 352 354 354 355 355 355 356 359 360 361 360 363 361 361 363 362
307 308 306 299 304 310 311 312 308 311 307 303 302 303 304 303 297 296 298 305 304 314 315 319 319 322 323 324 325 326 328 332 332 334 336 338 340 342 344 344 347 347 347 348 349 351 356 351 352 350 351 354 355 357 354 354 358 364 363 362 360 361 361
306 300 303 301 304 302 303 304 303 306 306 310 307 306 303 301 299 298 297 297 305 314 321 320 320 322 323 323 324 326 329 330 332 334 335 337 339 341 344 343 346 347 350 350 351 357 358 353 353 351 350 350 353 356 354 356 358 358 358 358 358 360 362
300 301 307 305 305 306 304 304 303 305 303 302 299 298 306 305 301 296 298 298 307 316 322 321 321 322 324 325 325 326 329 330 331 333 335 337 338 341 343 343 345 346 349 353 353 355 357 355 354 353 353 353 349 351 353 354 354 353 356 358 360 360 362
301 304 307 309 309 308 308 306 304 308 307 306 302 295 301 304 304 306 305 302 304 318 322 322 321 322 323 324 325 326 329 331 331 333 334 337 339 340 341 342 344 345 347 349 350 352 353 355 354 355 351 352 352 352 356 360 359 361 358 357 359 364 363
304 306 308 309 309 308 305 306 308 307 304 306 304 304 305 302 304 301 305 302 304 317 322 322 322 323 324 325 325 326 328 330 331 332 334 336 337 338 339 340 340 342 343 347 349 350 349 351 354 356 355 355 353 353 353 353 353 355 358 358 357 357 358
299 301 304 303 307 307 304 304 306 308 307 306 306 305 307 301 302 303 303 298 304 315 322 321 321 322 323 323 324 325 326 328 329 330 332 333 335 336 337 337 338 340 341 342 344 346 347 349 351 351 351 352 352 354 353 354 355 354 357 357 356 354 356
290 290 291 294 297 300 304 306 306 307 306 305 304 300 309 295 305 306 303 304 311 316 320 319 320 321 322 323 324 325 326 326 327 328 329 331 332 334 335 336 336 336 338 341 341 343 345 348 348 347 347 348 352 352 352 355 355 353 353 355 354 353 358
296 299 301 303 305 303 300 303 305 304 305 306 306 304 302 299 304 304 309 309 309 311 317 316 317 319 319 320 322 322 323 324 326 328 329 329 330 332 332 333 334 336 337 337 340 342 342 343 345 348 350 351 351 351 353 354 353 353 354 358 358 356 356
302 301 301 303 304 301 302 302 303 304 304 305 304 301 300 308 303 299 309 313 309 311 314 316 317 318 319 319 321 322 323 323 323 325 326 329 328 329 330 331 332 332 333 336 339 339 341 342 343 348 349 350 351 351 351 353 355 354 354 350 349 352 356
302 303 302 302 302 302 302 303 303 303 304 303 301 303 305 306 302 301 309 313 309 311 314 316 318 319 319 319 320 321 322 323 324 325 324 324 325 326 327 328 329 329 330 331 333 335 339 341 341 342 342 344 348 349 351 354 354 353 353 355 354 354 356
300 301 302 303 302 301 302 302 302 302 302 302 303 303 305 306 306 311 311 312 312 315 316 318 319 320 320 320 321 322 322 321 322 323 323 324 324 324 325 326 327 328 328 329 330 332 333 334 337 339 339 341 344 349 351 354 354 351 355 354 352 352 351
297 300 301 301 301 300 299 301 302 301 302 302 304 304 305 306 306 311 311 312 310 317 319 317 320 321 321 321 320 320 321 321 321 321 322 323 324 324 325 326 326 327 328 327 328 330 330 331 333 335 341 342 343 345 347 347 349 351 351 350 353 352 354
294 298 299 299 300 300 299 299 300 300 300 299 301 301 305 304 304 309 311 309 310 314 324 319 319 319 319 318 319 319 320 320 321 320 321 321 322 322 323 324 325 325 327 327 327 327 327 327 329 332 338 338 339 341 343 346 351 352 351 349 349 350 350
293 297 299 298 298 297 295 296 299 301 301 302 303 304 306 306 306 305 306 308 314 316 318 316 316 318 318 318 318 318 320 321 320 320 320 321 321 321 322 322 323 323 324 326 327 326 327 328 328 329 332 335 341 342 343 347 349 348 347 346 346 348 347
293 296 298 298 294 288 290 301 304 303 300 301 300 301 304 308 310 309 314 314 317 317 316 315 315 316 316 318 320 321 320 319 320 320 320 320 321 321 321 322 322 322 323 324 325 326 327 328 329 330 333 331 333 337 340 345 345 344 344 344 344 345 347
293 296 296 292 286 288 302 304 305 305 304 304 302 304 305 307 310 312 313 315 315 316 316 317 317 319 318 319 319 318 320 320 319 320 320 320 319 320 320 320 320 322 323 324 325 325 324 325 328 329 329 331 331 333 336 336 338 340 339 339 341 343 344
298 295 293 285 288 300 303 303 304 306 305 305 304 302 305 308 309 311 312 313 315 316 316 317 319 318 318 317 318 319 319 319 319 318 318 319 318 318 319 320 320 320 320 323 324 327 328 325 324 326 326 331 331 330 333 337 337 336 337 337 337 339 338
291 293 293 292 300 299 300 299 301 302 300 301 301 297 303 307 310 311 312 314 314 315 315 316 317 317 317 314 315 317 318 317 317 318 318 318 318 318 319 319 320 321 321 321 323 328 328 324 328 329 325 328 330 329 329 332 334 334 336 337 337 338 337
297 293 292 292 291 288 295 303 305 306 306 306 306 302 300 308 308 312 313 313 313 314 315 314 315 315 312 309 312 316 317 317 316 317 317 318 318 317 318 319 320 320 320 320 322 321 322 322 322 329 332 331 330 331 329 331 336 337 336 335 336 338 337
297 294 291 290 287 293 302 303 305 307 308 308 309 300 296 306 310 312 313 312 314 313 312 312 314 310 305 307 312 315 317 316 317 316 316 316 317 317 317 317 317 317 319 320 320 321 320 320 321 323 326 326 325 327 328 326 331 332 332 332 332 333 332
295 295 291 289 295 294 303 305 305 305 307 305 302 289 291 307 310 310 311 311 312 315 312 312 311 309 305 307 312 316 315 315 316 316 315 315 315 316 316 317 317 318 321 319 318 317 317 320 321 321 322 323 325 325 325 324 325 324 328 331 332 335 335
293 294 293 295 298 305 307 305 305 305 303 301 292 287 300 310 310 310 310 311 312 312 312 312 309 312 313 314 314 315 314 313 313 314 315 315 315 315 315 316 320 316 317 316 316 316 320 322 319 320 321 321 322 324 326 326 325 325 328 331 333 335 336
293 294 291 292 299 306 308 308 306 306 301 290 290 305 312 311 309 310 311 311 312 313 312 311 311 312 312 313 312 312 312 311 312 312 313 313 314 315 317 318 317 316 315 317 317 316 318 318 319 319 319 321 324 324 323 323 325 329 332 332 333 334 334
296 295 292 291 287 303 310 308 305 305 297 303 309 311 311 311 310 311 311 312 311 312 311 311 311 311 310 310 310 309 310 310 310 311 312 313 313 313 314 315 316 316 316 315 316 317 317 318 319 319 318 320 321 323 323 325 326 328 330 332 333 334 335
292 292 289 290 302 307 310 307 301 305 310 312 313 311 308 310 310 309 309 310 310 309 309 308 308 309 308 308 309 310 310 310 310 311 313 313 313 312 313 314 315 316 316 316 316 317 317 319 320 321 321 321 322 321 323 328 327 327 328 328 332 331 332
298 296 299 303 308 310 310 310 310 311 313 315 313 313 311 309 308 311 309 309 309 309 309 308 308 307 308 308 309 308 308 309 309 310 311 312 312 312 313 313 317 316 315 314 314 316 317 319 320 322 321 320 321 321 325 327 328 326 326 326 328 328 329
306 307 307 309 309 310 310 310 313 312 312 313 312 312 310 310 311 310 309 310 310 310 310 308 307 307 308 309 309 309 309 309 310 311 312 313 314 314 314 314 314 314 314 314 314 315 316 318 318 322 319 319 320 322 321 325 325 324 325 326 326 326 325
297 293 306 305 307 308 308 308 312 314 313 312 310 310 308 310 310 311 311 311 311 311 310 308 308 309 310 308 308 310 310 309 310 311 312 313 313 313 313 313 315 314 314 313 314 315 314 317 317 318 318 318 319 323 323 320 320 324 323 324 325 325 325
297 298 305 306 309 309 309 308 309 310 311 311 310 311 311 312 312 312 311 310 309 309 308 309 308 307 308 308 308 308 308 309 310 311 311 312 312 314 314 314 315 314 313 313 313 314 315 316 317 318 318 318 319 319 320 320 321 322 323 323 321 322 322
303 304 305 307 309 308 308 309 310 311 311 311 311 311 312 311 312 312 312 311 309 308 308 310 309 308 308 308 308 307 308 310 310 311 311 312 313 313 313 313 314 313 313 313 313 313 314 315 316 317 317 318 319 320 320 321 323 322 321 322 323 322 322
299 300 303 307 301 299 305 308 309 310 312 312 311 311 311 311 311 311 310 310 311 310 310 310 309 307 308 309 310 308 308 309 310 311 312 312 312 312 312 313 313 313 314 313 313 313 314 315 316 316 316 318 319 318 320 321 322 321 321 321 322 322 322
298 308 308 310 308 307 308 309 311 312 312 311 310 310 310 311 312 313 311 310 310 310 310 311 310 310 310 310 310 309 309 310 311 311 311 311 311 311 311 311 311 312 312 313 313 313 314 315 315 315 316 317 319 319 321 321 321 321 321 321 320 320 323
308 310 310 311 309 306 308 311 313 312 313 313 311 312 312 311 312 312 312 312 310 312 311 312 311 310 309 309 310 310 310 310 311 311 311 311 311 311 310 310 311 311 311 312 312 312 313 314 314 315 314 315 318 317 319 320 321 321 321 320 319 318 319
306 312 312 312 311 311 312 313 313 313 313 314 311 312 312 312 313 312 312 312 312 312 311 311 312 311 310 310 309 309 309 309 310 311 311 311 310 310 310 310 310 311 311 311 312 313 313 313 313 313 313 314 315 316 318 318 319 318 320 319 318 319 320

ECMWFFLT2_sfc_thetae_102.txt.gz
Theta_e
305 305 308 308 305 295 298 302 296 297 300 302 296 301 300 300 296 297 308 305 309 315 317 320 324 325 326 328 329 331 331 332 332 332 334 336 338 339 341 342 340 341 338 336 336 335 337 338 338 342 345 346 346 347 347 347 348 352 350 350 353 354 353
306 308 307 307 307 303 300 297 297 303 305 302 296 291 290 289 287 295 305 303 303 305 301 318 320 323 323 325 327 330 330 331 330 332 333 337 339 341 342 342 341 343 342 344 348 340 340 339 338 342 345 347 347 348 348 347 348 351 351 350 353 354 353
303 308 306 304 307 307 299 298 304 300 294 295 294 293 289 288 288 295 300 303 304 305 304 314 315 318 320 323 326 327 328 330 331 332 335 336 337 339 340 338 340 341 343 346 345 344 345 346 348 345 346 348 348 348 350 349 348 352 353 352 353 355 354
302 301 300 294 298 304 306 305 299 302 296 293 293 293 293 291 288 295 296 302 299 309 309 316 317 318 320 323 324 325 329 330 332 333 335 336 336 337 338 339 340 340 342 343 346 347 346 346 347 346 347 347 348 350 352 351 350 353 354 352 354 354 354
302 295 297 293 296 297 297 296 295 300 298 299 297 299 294 290 289 295 296 292 298 309 318 320 320 322 323 323 325 328 331 332 333 334 335 335 337 338 340 338 337 341 343 345 346 348 347 348 349 348 347 347 348 350 351 352 352 353 354 354 354 355 355
291 295 300 300 300 300 298 295 294 294 294 294 292 289 296 296 296 291 294 290 300 314 324 323 322 324 326 326 327 327 330 331 331 332 333 334 335 336 339 342 343 342 342 346 347 347 348 348 347 347 348 349 349 349 350 351 352 353 356 356 355 355 355
295 298 302 304 304 303 301 300 298 298 294 294 291 287 289 300 301 305 301 298 300 317 322 323 322 323 326 327 330 327 329 330 330 330 331 332 334 335 338 341 342 341 343 344 345 344 344 346 346 348 348 349 349 350 352 353 352 352 350 348 346 345 345
300 299 301 302 303 303 299 297 299 298 295 297 293 291 293 298 302 298 296 297 305 316 322 323 324 326 327 329 331 328 328 330 330 330 329 330 331 334 337 339 340 339 340 342 343 344 343 344 346 347 348 349 349 349 349 351 352 353 353 349 347 346 346
289 293 295 297 300 298 296 296 296 299 299 300 298 300 301 298 300 300 297 295 302 314 320 322 324 325 325 326 327 330 327 327 328 329 329 330 331 332 334 337 338 338 339 340 341 344 344 344 345 345 347 348 348 348 349 349 350 353 353 349 349 349 348
283 284 285 287 291 294 297 298 297 298 299 299 299 296 298 291 300 301 299 299 307 314 317 319 321 321 322 326 327 330 329 326 326 327 327 328 330 331 332 335 335 335 335 337 339 342 342 343 343 345 345 346 346 347 348 348 349 350 351 351 349 347 347
287 289 291 296 303 295 292 295 296 297 299 301 300 298 296 293 298 298 301 305 306 310 313 315 318 320 321 324 325 325 326 325 325 324 325 325 326 327 330 333 335 337 337 337 338 341 344 345 346 346 346 347 348 348 350 351 350 349 351 351 351 348 346
298 298 298 297 300 295 294 295 295 298 298 299 301 297 297 303 301 292 303 307 306 309 312 314 316 319 320 324 324 324 323 323 323 323 323 326 324 326 327 329 331 331 333 334 334 336 339 343 345 345 345 346 346 348 349 352 353 353 352 352 348 347 348
298 298 297 297 296 296 295 295 296 297 298 297 297 304 306 304 299 297 303 305 307 309 313 315 317 318 320 322 323 323 323 323 322 321 321 321 321 322 324 326 328 330 331 332 333 334 336 341 344 344 343 343 346 346 346 348 350 351 353 352 348 346 347
296 297 297 296 295 295 295 295 296 297 298 296 299 303 307 306 303 307 307 307 309 312 313 316 317 320 321 322 323 323 321 321 321 320 320 320 320 321 321 322 323 326 328 330 331 333 334 337 340 340 340 341 343 345 347 348 350 351 351 351 351 352 351
293 296 298 295 295 294 293 295 296 297 297 297 299 310 310 310 308 309 309 307 306 312 316 317 320 321 321 321 320 320 320 321 321 319 318 318 318 319 320 320 321 322 323 326 329 332 335 337 338 339 340 340 341 342 345 347 347 348 347 345 346 346 346
290 294 294 294 294 294 294 294 295 295 296 295 295 298 306 307 305 307 307 304 305 310 318 317 317 317 318 316 316 316 316 317 317 316 315 316 316 317 317 318 317 317 318 320 324 331 335 337 337 337 337 339 340 340 343 344 346 347 345 343 342 343 344
290 293 294 293 293 290 288 291 294 296 298 298 297 302 312 310 310 306 303 302 309 312 315 312 312 314 314 315 315 315 315 315 315 314 314 314 315 315 317 318 317 316 317 319 320 324 330 336 336 337 337 336 336 337 339 341 343 344 344 344 341 341 342
289 294 295 295 289 283 285 296 299 299 296 299 300 302 308 309 311 307 310 309 312 313 312 311 311 312 312 313 315 317 315 313 313 313 314 314 314 314 315 316 318 317 318 319 321 322 323 327 331 333 335 335 335 337 337 337 336 337 338 340 342 342 341
285 289 291 287 283 285 297 300 300 301 301 309 308 308 310 310 311 312 311 312 312 313 314 315 316 315 314 315 315 316 316 315 313 313 313 312 313 312 311 311 313 316 317 317 318 320 323 324 322 323 327 333 334 334 335 335 335 335 335 334 335 338 341
287 284 284 279 280 290 299 298 300 306 300 301 309 306 309 312 312 313 311 311 313 313 313 315 318 318 319 317 315 315 316 316 314 313 312 312 312 311 311 311 311 312 316 318 317 319 325 323 322 322 322 325 329 331 331 330 330 330 331 332 334 335 335
284 285 283 283 291 294 295 296 297 297 296 297 302 299 301 310 312 312 311 311 312 313 314 315 316 317 317 313 314 315 315 315 315 314 313 313 312 312 312 312 311 312 314 317 317 319 321 323 323 321 321 322 323 327 330 330 329 329 329 328 328 329 330
290 283 281 282 282 282 287 297 301 302 302 303 304 302 296 303 310 314 311 310 311 310 311 313 313 312 308 305 307 312 312 314 314 315 314 313 312 311 310 311 312 314 315 315 318 318 318 320 321 321 321 321 321 321 322 325 327 327 327 327 328 328 328
289 286 280 280 279 283 292 296 299 299 300 305 303 296 293 303 307 311 312 310 312 313 312 313 311 307 302 302 306 310 310 311 312 310 310 310 310 310 311 311 312 313 315 316 315 315 314 314 317 320 321 321 321 321 322 320 322 323 325 327 327 326 327
290 287 283 282 288 287 296 299 299 297 298 304 297 287 287 300 305 307 312 311 311 311 312 313 311 306 302 302 303 308 309 309 309 309 308 308 310 312 313 313 313 314 315 314 313 313 313 313 316 319 321 321 325 322 320 320 321 323 324 326 327 328 327
288 291 284 286 292 299 303 301 300 299 304 296 287 282 294 304 305 308 311 312 312 312 311 311 306 308 307 306 307 308 308 308 308 308 310 311 313 313 313 314 318 311 311 311 311 313 314 315 316 319 320 319 318 319 317 316 318 319 320 322 323 323 324
284 283 283 284 287 298 302 299 303 303 297 284 284 297 307 306 305 306 310 311 311 311 309 308 307 306 307 309 307 307 307 307 306 307 309 311 311 313 318 320 315 310 310 310 312 314 315 316 317 317 319 319 317 315 315 315 317 319 319 319 320 321 323
285 285 284 283 282 296 306 303 299 302 290 290 295 303 304 305 303 304 304 306 307 307 304 306 305 304 305 305 306 306 306 306 306 307 309 309 309 309 309 310 315 312 309 310 311 313 314 315 315 315 318 319 317 315 314 315 317 320 320 319 320 320 322
281 281 281 282 289 297 305 300 293 301 302 304 305 302 300 303 303 302 302 302 303 304 303 303 303 303 303 304 305 305 305 306 307 308 308 308 308 309 311 312 313 315 310 311 311 312 312 314 314 314 315 317 318 315 313 317 317 320 318 319 319 320 321
290 288 289 293 296 300 305 307 305 307 309 310 308 304 303 302 302 304 302 302 303 303 303 303 303 302 303 303 304 304 304 306 306 306 307 307 308 308 309 311 314 311 309 309 310 311 311 311 312 313 313 314 316 313 313 318 316 317 317 319 320 320 318
296 298 299 302 303 304 306 307 306 305 304 306 306 305 303 304 304 304 302 302 302 303 304 303 302 302 302 303 303 304 306 307 307 308 307 307 307 308 308 309 311 309 309 310 310 311 311 311 311 314 312 312 312 312 314 316 315 316 317 318 318 318 318
289 286 297 299 301 304 304 304 306 306 305 305 305 304 304 304 305 304 304 303 303 304 304 303 302 302 303 303 304 306 306 306 306 306 306 306 306 307 307 310 311 308 309 309 311 312 312 310 310 312 312 312 313 313 314 314 315 315 316 318 319 317 314
287 291 299 301 304 303 304 303 302 302 303 304 306 307 307 306 306 306 305 305 304 304 303 303 303 303 304 303 303 305 305 305 305 306 306 306 306 307 308 309 310 307 307 308 310 310 310 309 310 312 312 312 313 312 313 314 313 313 315 317 316 314 315
294 298 300 302 301 302 303 305 304 305 304 303 304 305 305 305 305 305 305 305 305 304 304 304 303 303 303 303 304 305 305 305 305 305 305 305 305 306 307 309 309 306 310 309 309 311 309 310 310 310 310 311 311 311 311 312 312 311 314 315 315 312 313
288 292 296 301 294 294 300 303 305 306 306 305 304 304 304 304 303 304 304 304 305 305 304 303 304 302 302 304 305 305 305 305 305 305 305 305 304 304 306 307 307 310 312 307 309 310 307 308 309 310 308 309 310 311 311 311 311 311 312 312 312 312 313
291 298 301 300 299 298 301 304 306 306 307 306 306 305 303 304 304 304 303 303 303 303 304 305 304 303 303 302 304 304 305 305 305 305 304 304 303 304 305 304 305 305 307 311 309 308 306 309 308 309 309 308 308 310 310 311 311 311 310 312 312 310 313
302 302 304 304 301 301 304 307 307 307 308 307 306 307 308 307 306 305 304 303 303 303 303 304 306 305 304 304 304 304 304 305 305 304 304 304 304 305 306 304 305 308 307 307 306 307 305 307 306 307 308 307 307 309 309 310 310 310 311 311 310 310 310
300 305 306 305 304 305 306 306 308 308 310 310 308 308 308 308 309 309 306 303 304 304 303 304 304 306 305 304 305 305 304 304 306 306 308 308 307 305 305 307 306 306 305 304 304 304 305 307 307 309 306 306 307 308 308 309 309 309 310 311 311 311 311

ECMWFFLT2_sfc_thetae_105.txt.gz
Theta_e
301 303 305 304 302 292 297 298 294 296 299 300 295 302 300 300 297 295 304 302 305 311 314 318 322 325 326 329 330 330 330 332 333 333 334 335 337 337 335 336 336 336 339 338 335 335 336 337 338 339 341 342 343 344 345 344 345 347 346 349 350 350 349
300 304 305 306 304 300 298 294 297 301 304 300 295 291 290 288 288 294 301 299 300 300 301 315 319 319 320 322 326 330 330 331 331 332 333 335 335 336 337 338 338 337 339 339 339 342 340 340 338 339 342 343 343 345 346 344 345 346 346 348 350 350 349
299 302 304 301 306 303 298 297 300 299 293 295 293 293 288 287 290 293 296 301 302 301 301 312 314 316 318 321 324 326 327 329 330 331 332 334 336 336 337 337 337 336 340 342 341 340 341 343 344 343 345 344 344 344 346 346 346 347 347 348 351 352 351
298 299 299 293 296 302 302 300 298 300 296 292 293 292 290 290 289 294 295 298 297 305 306 314 315 319 321 321 325 327 329 331 332 332 334 335 335 335 337 336 337 338 340 342 344 342 341 341 343 345 345 346 344 345 346 346 346 348 348 347 350 351 352
298 295 294 294 293 295 297 294 293 298 297 298 296 296 294 290 293 291 294 292 296 304 317 318 319 322 324 325 326 327 328 329 331 332 333 334 335 336 337 337 337 339 340 343 344 346 345 343 344 345 346 348 346 347 347 347 346 348 349 348 349 351 352
288 291 295 297 297 297 295 292 294 292 293 293 289 288 293 299 296 292 292 288 291 309 322 321 321 324 326 328 328 327 328 329 330 331 334 336 336 336 336 337 339 342 344 345 345 346 346 344 344 343 346 349 349 348 349 348 348 349 350 349 349 350 352
293 296 299 301 299 299 297 295 296 293 292 291 286 286 288 298 300 303 298 295 296 316 322 322 323 325 326 327 327 326 327 328 329 332 335 335 338 340 339 337 338 341 344 345 344 344 344 345 345 346 347 347 347 351 351 351 349 350 352 351 351 352 352
297 298 298 300 301 298 296 295 294 294 296 295 291 288 290 297 300 296 293 295 302 316 323 323 325 326 326 328 327 326 326 327 328 329 331 333 336 337 337 338 339 340 342 342 340 341 342 342 343 344 346 348 347 349 351 351 350 352 354 353 352 351 350
290 292 294 295 298 298 293 293 293 295 296 296 294 297 297 298 298 298 296 292 302 315 322 324 324 323 323 324 325 326 324 326 327 328 330 331 333 334 335 335 335 337 337 338 339 340 341 343 344 344 346 347 347 348 350 351 350 352 350 350 350 350 350
284 284 283 285 289 292 294 295 294 296 296 295 295 295 294 287 297 299 297 298 307 316 320 321 322 321 321 324 325 326 325 324 325 327 328 330 332 332 333 334 335 334 335 338 340 340 341 342 342 344 346 347 348 348 349 350 351 351 349 349 349 348 348
288 290 291 295 301 291 290 292 294 295 296 300 296 294 293 291 294 296 299 305 308 311 316 317 319 321 320 321 322 322 322 324 325 325 327 329 330 332 332 332 333 333 334 336 338 338 340 341 343 345 345 344 346 347 347 349 350 350 349 348 348 347 347
297 298 298 296 299 292 292 292 293 295 295 297 297 294 292 298 300 291 302 310 308 310 315 317 318 321 321 321 321 321 322 323 324 325 327 329 330 331 332 332 332 332 333 334 337 339 340 341 343 343 344 345 345 347 347 348 349 349 348 347 347 347 347
296 296 295 295 294 293 294 294 295 295 296 299 301 301 302 302 297 295 303 309 309 312 315 318 319 320 319 320 321 322 322 323 323 324 324 324 325 326 327 328 330 332 332 334 336 338 341 342 342 342 344 344 346 347 349 348 347 347 348 346 346 347 347
295 296 296 295 293 292 292 293 294 296 298 304 304 304 304 302 299 304 308 309 310 314 316 318 319 321 321 320 321 321 320 319 319 318 319 320 322 323 324 326 328 330 332 333 335 336 336 337 339 340 341 342 345 346 346 347 347 348 347 345 344 345 346
293 295 297 295 294 294 292 293 295 295 297 307 307 307 308 309 308 309 309 309 308 313 317 318 320 320 320 320 319 319 319 319 317 316 316 316 315 316 318 319 322 326 331 334 335 335 335 335 336 337 339 339 340 342 344 345 345 348 350 346 347 347 346
291 294 294 294 294 293 293 292 293 294 294 296 303 304 307 306 304 307 307 305 306 310 317 319 319 318 317 316 316 315 315 315 315 314 314 314 314 315 317 319 321 323 329 333 333 334 335 335 335 335 336 338 339 339 341 342 343 343 341 341 341 341 343
289 295 295 294 293 290 288 290 292 294 294 299 307 308 311 310 311 306 304 305 311 313 317 315 315 316 316 314 313 313 313 313 313 313 314 314 315 316 318 319 320 321 325 329 331 331 332 333 334 335 335 335 336 337 338 340 341 341 341 341 339 339 340
290 294 294 294 287 282 284 293 297 297 295 305 305 304 308 310 309 307 310 311 312 314 315 313 313 313 313 313 313 314 313 311 311 312 313 313 314 314 316 317 317 317 320 323 327 329 330 332 332 333 334 334 336 337 336 336 336 337 337 338 339 339 340
287 294 293 288 282 284 294 299 299 302 309 308 306 305 306 308 311 311 310 311 311 311 312 312 313 313 314 315 314 314 314 312 311 310 310 311 312 312 313 313 315 315 317 320 321 321 322 325 325 328 330 333 333 332 332 331 333 332 332 332 333 337 340
286 287 286 282 284 293 298 299 299 303 299 302 308 304 304 305 311 312 310 309 310 311 311 312 313 313 314 314 314 313 313 313 311 310 309 309 310 309 310 312 313 316 318 319 320 320 323 322 322 324 326 328 329 329 330 329 329 328 328 328 330 331 331
283 284 286 289 294 293 295 295 296 297 293 294 299 297 299 303 308 311 309 309 311 311 311 312 312 312 312 309 309 313 313 312 312 310 309 309 308 310 311 313 314 316 318 318 319 319 319 319 320 320 321 323 323 324 325 326 326 326 325 325 326 327 329
283 280 282 284 285 284 288 297 300 303 299 299 302 301 297 303 310 312 310 309 310 310 310 310 311 312 307 303 305 312 313 312 311 310 309 309 310 312 312 312 312 312 313 315 317 316 316 318 318 319 320 321 320 319 320 320 320 321 322 322 324 325 324
285 282 277 279 280 286 293 296 300 302 298 300 303 299 293 300 308 312 312 310 311 310 309 310 311 308 302 301 304 308 311 310 309 308 308 310 310 311 312 312 313 314 314 315 316 316 316 316 317 319 320 318 317 316 317 316 316 316 317 319 320 320 322
287 282 279 282 284 287 297 298 301 300 299 301 297 290 291 299 305 312 313 311 310 310 310 310 308 306 302 302 303 308 310 310 310 310 310 310 310 310 310 311 312 314 316 314 313 313 314 315 317 316 316 317 320 316 316 316 315 316 316 317 318 320 320
288 289 281 283 287 297 301 301 300 299 302 295 286 284 295 302 303 308 310 312 312 311 310 310 306 308 309 309 310 311 309 309 311 313 314 313 312 311 312 314 318 312 312 312 312 312 313 315 317 317 315 314 314 316 315 314 315 316 316 317 318 319 319
282 281 282 281 284 291 298 301 301 302 298 286 283 289 300 302 302 308 312 311 312 310 310 309 309 310 312 312 308 308 309 311 314 314 316 316 315 316 318 317 314 311 311 311 311 312 313 315 317 316 315 315 314 313 313 313 314 316 316 316 317 318 318
283 280 281 279 280 294 303 302 297 300 291 287 291 298 300 302 303 311 311 311 311 311 309 310 307 306 306 306 305 306 308 309 309 309 309 308 308 309 310 311 315 312 309 309 310 310 312 313 314 315 315 314 313 312 311 313 314 316 316 316 316 317 318
280 280 281 281 285 292 300 298 293 298 300 300 300 297 297 300 303 307 304 303 307 310 307 304 304 305 304 304 304 305 306 307 307 306 307 308 309 310 310 311 311 313 309 309 309 309 310 312 311 312 314 314 314 312 310 314 314 316 315 316 317 317 318
288 287 285 289 293 296 300 303 302 304 305 307 304 301 300 300 299 302 303 304 306 306 304 306 304 303 304 303 305 305 305 305 305 305 306 307 307 308 309 310 312 310 308 308 308 308 308 310 311 311 311 312 312 310 310 314 313 313 314 316 317 315 314
293 294 296 298 300 302 303 302 302 303 303 304 303 302 300 300 301 303 305 307 308 309 310 308 308 305 303 303 304 305 305 305 305 307 306 306 307 307 308 308 309 309 309 309 309 308 308 309 310 312 310 310 310 309 311 313 312 312 314 315 315 314 313
288 286 293 297 298 300 301 301 300 302 303 303 303 302 301 301 301 302 305 307 308 309 311 310 309 309 310 307 304 305 304 305 304 305 305 305 306 306 307 309 310 307 308 308 309 310 308 308 309 309 309 310 310 310 311 311 311 312 314 314 314 312 311
288 292 297 299 301 300 302 301 300 300 301 302 304 304 303 302 302 303 303 304 304 305 304 305 306 305 306 305 303 304 304 304 305 305 305 304 305 306 307 308 307 305 305 305 308 308 307 306 307 308 308 308 308 309 310 311 311 312 314 314 312 310 310
293 295 298 299 299 301 302 303 303 302 301 300 301 302 303 303 302 302 302 303 303 302 302 303 303 302 303 305 304 304 304 304 304 305 305 305 305 305 305 306 307 305 307 308 307 307 306 305 306 306 306 307 308 308 309 309 310 311 313 314 313 310 311
288 290 296 299 294 294 298 301 303 304 304 303 303 302 302 301 301 301 301 302 303 303 303 302 303 302 302 304 304 304 304 304 304 304 304 303 304 304 305 307 307 309 309 307 306 306 304 305 306 306 305 306 307 308 308 308 309 310 311 312 310 309 311
288 292 295 298 295 295 299 302 304 303 304 304 304 303 303 302 303 302 301 301 300 301 301 303 303 302 304 303 304 304 304 304 304 304 303 302 302 303 304 304 304 306 306 308 307 306 304 306 307 306 305 305 305 307 307 307 307 307 307 309 309 308 311
299 299 298 299 298 299 302 303 304 304 305 304 303 304 305 304 305 304 303 302 301 300 300 301 304 304 304 304 304 303 303 304 303 302 302 303 303 304 304 305 306 306 306 306 305 305 304 306 305 304 305 304 304 306 306 306 306 305 305 306 304 305 307
299 302 301 301 300 301 303 304 305 306 308 308 304 305 307 306 306 305 303 302 302 302 300 301 302 304 304 304 304 304 304 304 304 304 306 306 305 304 304 306 305 305 305 303 303 303 304 304 304 305 303 304 304 305 305 305 305 305 304 305 304 304 306

ECMWFFLT2_sfc_thetae_111.txt.gz
Theta_e
306 307 308 306 307 296 300 301 298 301 312 312 307 307 305 308 306 303 315 312 314 319 319 324 329 330 329 329 331 333 334 335 336 335 336 337 338 339 340 336 335 338 340 341 341 343 344 345 346 347 350 352 353 354 354 355 357 357 357 359 359 360 360
305 305 308 308 307 308 302 297 302 308 309 309 305 298 303 303 299 302 310 307 310 308 307 323 327 327 329 330 330 332 334 335 334 335 336 337 340 341 342 339 339 340 341 341 342 343 343 344 345 347 351 352 354 354 354 354 356 355 356 357 357 358 359
304 305 306 305 306 308 305 303 309 301 297 296 305 303 296 297 296 300 305 308 309 311 312 319 322 324 326 329 332 332 332 333 334 335 337 338 340 341 342 342 338 339 340 341 343 343 343 346 348 348 350 351 353 353 353 353 354 354 355 355 356 358 359
302 305 305 299 302 306 305 307 304 306 304 302 299 300 304 303 297 299 302 305 305 314 316 318 320 324 326 328 330 331 333 334 334 336 337 337 339 341 343 342 340 340 342 343 344 344 345 346 348 349 350 350 350 352 353 353 354 355 356 355 356 356 357
301 300 303 302 304 301 302 303 302 302 304 306 306 304 303 300 301 300 300 300 307 315 320 321 322 324 329 330 330 332 333 335 336 337 337 339 341 341 341 342 343 342 341 341 342 345 347 349 349 347 348 350 350 351 352 353 353 352 353 354 355 357 357
299 301 303 301 303 306 305 303 302 303 301 300 296 296 304 306 303 298 300 298 311 317 323 325 325 328 330 331 331 331 333 335 337 338 339 341 341 341 341 341 342 343 344 344 342 344 347 347 348 347 348 351 351 352 352 353 354 354 353 353 355 356 358
300 302 304 304 303 303 303 305 304 306 305 306 300 293 299 307 308 308 308 303 308 320 325 326 328 330 331 332 333 332 334 335 336 339 340 342 342 340 340 341 342 346 348 347 346 347 347 347 348 351 351 351 350 352 353 354 353 354 352 353 357 359 358
303 304 303 303 302 302 302 302 301 302 302 304 303 302 307 303 307 305 305 301 310 318 326 327 329 331 331 332 333 332 333 336 337 338 339 340 340 341 341 341 342 344 347 346 344 347 348 349 348 347 349 352 352 352 354 354 354 354 354 356 358 359 359
297 299 302 301 304 304 301 299 301 300 301 302 306 309 311 305 308 308 303 297 309 319 325 328 329 329 329 329 333 335 334 335 336 338 340 340 340 340 342 344 344 344 344 344 344 343 345 349 350 350 350 347 348 353 354 353 355 356 356 358 358 358 358
289 289 291 292 296 297 300 301 300 302 303 307 306 301 306 297 308 307 305 306 313 320 323 325 327 326 328 330 331 334 334 333 334 336 337 338 338 338 341 341 343 345 346 346 348 346 345 347 349 350 350 351 351 355 356 357 355 357 358 359 356 355 358
293 294 296 299 301 300 298 299 303 305 303 304 304 311 305 298 308 307 309 313 313 314 319 321 323 325 324 324 327 328 329 331 333 334 335 336 337 338 340 342 343 343 343 343 345 346 346 346 346 348 351 352 352 352 352 353 355 358 359 358 357 356 357
298 299 298 299 300 296 297 298 300 305 308 306 305 304 301 315 307 303 311 316 313 313 319 321 322 325 324 325 325 327 329 330 331 332 333 334 335 337 339 339 339 340 341 343 344 346 345 346 348 348 349 351 352 352 352 352 353 357 355 353 353 355 357
299 300 300 300 298 297 297 300 302 303 308 309 304 307 305 312 304 300 313 317 315 317 319 323 323 324 323 324 326 329 330 331 331 331 331 331 332 334 334 335 336 338 339 341 343 344 345 346 347 347 348 349 351 352 352 352 354 354 356 355 354 355 356
300 301 301 301 299 297 298 300 303 305 307 311 311 310 311 310 309 310 315 317 318 320 321 323 324 327 326 326 328 329 329 329 329 329 330 330 331 332 333 334 335 337 339 341 341 342 343 344 345 345 346 348 349 350 351 351 352 354 355 353 352 351 349
298 300 302 302 300 298 299 301 305 307 305 308 310 312 312 314 313 314 316 317 316 323 326 324 326 326 326 325 325 326 328 329 329 329 329 330 331 332 333 334 335 336 336 337 337 337 337 339 340 341 344 345 345 346 348 351 352 353 352 349 349 348 346
297 301 300 301 301 299 300 300 304 306 303 303 308 310 312 311 311 313 315 314 314 322 325 325 324 323 323 322 324 325 327 329 328 326 328 329 330 331 331 332 333 332 332 333 333 333 333 334 335 336 337 337 337 337 339 341 345 348 349 348 346 346 347
299 301 300 300 300 298 297 297 303 305 307 305 308 313 314 315 316 312 311 313 320 322 324 322 321 322 322 324 325 326 326 327 327 328 328 329 329 329 330 330 330 330 330 330 331 330 330 330 330 332 333 332 331 333 333 334 338 343 344 344 343 344 346
300 298 299 302 297 290 290 300 304 306 308 309 308 308 311 314 315 314 318 320 322 321 321 320 319 319 321 323 323 325 325 326 327 327 328 329 329 329 329 329 329 329 330 329 327 327 328 328 328 329 330 330 330 331 332 333 333 334 334 333 334 335 336
297 301 299 295 288 290 300 301 302 309 309 311 312 312 313 313 317 316 317 320 320 321 322 321 320 319 319 321 320 322 326 329 327 325 325 325 325 325 326 326 327 327 327 327 327 328 330 329 328 327 326 328 328 328 329 329 331 331 332 332 333 334 333
298 297 298 286 289 299 303 302 302 307 305 303 310 311 313 314 315 318 317 320 320 319 320 320 319 318 318 318 319 321 326 328 326 325 324 325 325 325 326 326 326 325 326 326 326 326 328 329 328 325 324 324 324 324 327 327 328 328 329 328 329 330 329
293 296 295 294 301 297 299 298 300 301 301 302 306 305 310 313 316 319 319 318 318 317 316 317 317 317 318 317 316 316 318 320 325 326 325 326 325 326 327 326 326 328 328 327 327 326 324 324 324 324 323 323 323 322 323 324 326 326 327 327 328 329 329
297 295 293 294 293 290 295 299 304 306 305 303 305 309 308 314 318 321 320 317 316 315 315 315 316 318 315 313 313 314 315 318 320 323 324 325 326 325 325 326 326 326 326 325 323 321 321 321 322 324 325 324 323 323 323 325 325 325 325 325 326 327 326
294 294 292 291 289 294 299 302 304 306 307 305 305 303 299 312 318 321 320 317 316 315 314 315 317 316 312 312 314 314 315 319 323 322 324 324 324 325 325 325 324 324 324 323 322 322 321 320 322 323 323 322 320 320 320 321 323 323 323 324 324 325 325
295 294 291 290 295 295 301 304 305 307 308 304 305 294 295 313 317 321 322 317 315 315 316 317 317 316 311 312 315 313 315 317 319 320 321 321 322 323 324 325 325 325 325 323 321 320 320 321 322 323 321 321 322 320 318 318 318 319 321 323 324 325 325
294 294 292 294 297 303 305 305 307 307 307 303 296 291 302 315 317 319 320 318 317 318 318 321 317 317 322 320 318 316 317 318 317 318 320 320 321 321 321 322 324 322 322 321 320 320 321 322 321 321 321 320 320 321 321 320 319 320 322 324 325 325 325
292 292 291 292 296 300 305 308 308 309 301 295 294 304 305 309 316 319 321 318 318 318 317 318 318 320 320 316 315 317 316 317 318 319 319 319 319 321 322 322 321 320 319 319 319 319 320 320 321 321 321 321 321 320 319 318 320 323 324 324 325 326 326
292 293 291 290 287 302 307 306 307 309 301 301 307 307 310 311 316 317 318 319 318 318 317 316 315 317 318 316 313 315 315 315 316 316 317 318 318 319 319 319 320 318 317 317 317 318 319 320 320 320 320 320 319 319 318 320 320 322 322 323 324 324 325
292 289 288 289 300 305 308 306 303 306 308 309 310 309 309 314 317 317 317 317 319 319 317 314 314 316 315 314 314 315 316 317 318 318 317 317 317 317 317 318 317 318 316 316 316 317 318 320 321 322 321 319 319 318 318 322 321 321 322 322 323 321 322
297 295 299 304 306 306 308 307 308 308 309 310 310 309 309 313 317 317 316 315 317 318 317 316 315 314 316 315 315 314 313 314 316 316 316 316 316 316 317 319 318 317 316 315 315 316 318 319 320 321 320 318 317 317 319 321 321 321 320 321 321 320 320
303 303 304 306 307 308 309 310 309 308 309 310 310 309 311 312 316 317 316 316 314 314 314 312 311 312 312 311 311 311 313 313 314 315 314 314 315 316 317 317 318 317 316 316 315 314 315 316 317 319 318 318 316 317 319 320 320 320 320 320 320 320 319
296 293 306 306 306 307 308 309 312 313 311 309 309 310 311 314 316 316 317 316 315 318 317 314 312 313 315 314 312 312 313 313 312 313 314 315 314 314 315 317 317 316 315 314 314 314 313 314 314 314 315 315 317 319 319 317 318 320 319 318 318 319 319
298 300 305 306 307 308 309 309 309 309 310 310 310 310 312 314 316 317 316 317 316 319 317 315 314 314 314 313 311 311 313 313 314 313 313 313 314 316 316 317 318 318 317 316 314 314 313 313 314 313 313 313 315 316 315 315 317 318 318 317 316 317 317
303 305 306 307 308 308 309 310 311 311 311 311 310 311 312 313 314 314 315 316 316 316 317 316 315 314 313 312 311 310 311 312 312 313 311 312 314 315 315 317 318 318 318 316 316 314 314 315 315 315 314 313 313 313 313 315 316 316 315 316 317 316 317
299 300 304 307 302 303 306 308 310 312 312 314 312 311 310 311 311 312 312 312 315 316 315 316 314 313 312 313 313 310 309 310 311 313 312 312 312 313 316 317 318 318 318 317 315 315 314 315 315 315 314 315 315 313 313 314 314 313 315 315 315 316 317
299 305 307 310 310 309 309 309 311 313 314 315 314 313 312 311 311 312 311 310 312 314 314 315 315 315 313 313 314 312 310 310 311 312 312 311 312 313 315 315 316 316 316 317 316 315 315 316 315 315 314 314 314 314 314 314 313 313 313 313 314 315 316
309 310 309 310 311 308 309 310 312 313 315 315 315 316 316 314 312 313 312 311 311 311 312 313 314 315 315 315 314 313 312 312 313 313 313 313 313 314 315 316 316 316 315 315 315 314 315 315 314 314 313 313 313 313 313 313 313 313 312 312 312 313 314
308 313 312 311 312 311 312 313 313 313 314 315 313 314 315 316 315 316 314 313 312 313 312 312 312 313 314 315 315 315 314 313 314 313 314 314 313 313 313 315 315 316 315 315 315 315 315 314 314 313 312 312 313 312 313 312 312 311 311 311 311 313 314

ECMWFFLT2_sfc_thetae_114.txt.gz
Theta_e
309 309 310 310 311 299 305 306 302 306 314 311 308 308 309 310 308 305 313 312 315 326 326 328 335 332 332 332 333 333 336 338 341 339 338 340 342 343 343 342 342 344 344 346 346 348 348 349 351 352 355 357 360 361 361 362 361 361 361 364 362 362 363
309 312 311 311 311 310 307 301 305 311 315 315 310 302 306 304 300 303 309 307 308 312 307 327 330 332 330 331 331 333 337 338 338 338 339 340 342 343 344 344 345 346 346 346 347 348 348 348 350 352 356 358 361 362 360 360 360 359 358 359 359 360 361
309 312 311 309 311 312 308 306 312 304 300 301 308 306 299 299 298 301 306 308 308 311 315 321 326 328 330 332 334 335 335 337 339 339 340 341 342 343 343 344 344 345 346 347 349 350 347 350 353 354 356 358 360 360 359 356 357 357 357 355 357 359 360
308 309 308 300 304 310 312 312 309 311 308 305 303 305 307 305 301 300 302 306 304 313 315 324 328 331 333 333 334 334 335 337 339 340 340 341 344 342 343 344 344 344 346 348 350 351 350 351 354 355 357 358 358 360 360 357 355 357 358 355 356 357 358
307 301 305 303 305 303 304 305 304 306 305 310 309 309 306 303 302 301 301 300 306 321 332 331 330 332 334 335 335 337 337 338 339 339 340 341 341 342 342 342 343 343 342 344 348 352 352 353 355 356 357 358 358 359 360 359 357 355 355 354 354 358 358
302 304 309 307 308 308 306 304 303 305 303 301 299 299 308 307 303 299 301 300 309 324 334 333 332 333 335 337 336 335 337 338 341 340 341 343 341 343 344 347 348 344 345 346 346 350 352 353 355 355 357 358 358 359 359 361 361 359 356 354 356 358 359
303 307 309 311 311 311 310 308 305 308 307 306 302 295 302 306 306 308 307 303 310 327 330 333 333 334 335 336 335 335 337 338 339 341 341 344 346 344 344 345 346 347 349 351 349 350 351 351 353 354 356 357 356 359 359 360 360 361 356 356 359 362 361
307 308 309 310 309 310 308 309 309 308 305 306 304 304 307 304 305 303 304 302 309 324 332 333 334 335 336 338 338 337 337 338 339 340 342 344 346 347 348 347 347 349 348 350 347 351 351 352 352 352 353 356 356 357 359 360 359 361 360 360 361 363 363
301 303 306 306 309 309 306 306 308 309 309 309 308 309 311 304 305 305 303 298 310 326 328 332 333 332 332 335 338 340 338 339 340 343 345 345 346 347 347 348 349 351 350 350 351 349 348 349 352 353 355 356 355 356 358 358 359 359 360 361 362 363 364
292 293 294 296 300 304 306 307 307 308 308 307 306 302 305 298 306 307 304 304 320 325 328 328 330 329 331 335 336 338 340 340 339 341 343 344 345 346 348 350 350 350 352 352 352 351 351 350 350 354 357 357 356 357 359 359 358 359 361 362 361 360 363
298 300 302 302 306 305 303 305 306 308 308 310 310 308 303 300 306 306 308 308 317 321 322 326 328 329 329 331 333 335 337 339 340 341 342 342 344 345 346 347 348 350 350 350 349 350 352 354 353 353 354 352 352 356 357 358 360 359 362 362 362 360 360
303 303 303 304 306 305 305 305 306 308 309 309 308 305 303 311 306 300 311 316 312 319 323 326 328 329 331 332 333 333 335 337 338 340 341 342 343 345 345 346 346 347 348 349 350 350 349 350 351 350 351 350 350 353 354 357 359 357 359 360 361 361 359
304 304 304 306 306 306 307 308 308 309 310 309 307 307 312 314 305 301 315 318 311 316 324 327 329 329 329 330 332 336 336 337 337 338 338 339 339 340 342 342 344 345 345 348 348 348 350 349 348 348 348 349 352 353 354 354 354 356 360 359 358 357 358
303 304 304 305 305 306 307 307 309 310 311 312 312 312 315 314 317 314 313 319 316 324 327 328 329 330 331 332 335 335 334 334 336 338 339 338 337 337 338 340 341 344 346 346 347 348 349 349 350 349 349 351 352 352 352 354 356 357 358 358 357 357 357
302 303 305 305 304 303 304 306 309 310 311 313 314 314 315 316 315 316 316 320 321 328 332 330 330 331 333 333 333 332 335 334 334 335 334 335 337 337 338 340 341 343 344 344 345 345 347 348 348 349 351 351 351 354 357 355 355 357 356 355 355 357 355
300 303 303 303 304 303 303 305 307 310 310 309 312 314 316 316 314 318 318 317 319 326 330 330 330 329 330 330 332 332 332 333 334 333 334 335 336 337 336 337 339 339 340 340 339 339 340 341 342 343 343 344 346 347 351 353 356 358 357 355 356 354 355
298 303 303 302 302 302 300 302 306 310 311 314 316 317 318 318 318 315 313 318 325 327 327 325 327 327 329 330 331 331 332 334 334 334 333 334 334 334 335 335 335 335 336 336 336 336 337 338 339 341 344 344 343 345 346 346 350 350 353 356 356 353 354
299 301 302 302 298 292 295 305 312 313 309 311 311 312 316 318 320 318 319 322 326 327 326 324 325 327 329 331 332 334 333 332 333 333 333 333 333 333 334 335 335 335 334 334 335 336 337 338 339 341 344 342 342 343 343 342 341 340 341 343 345 347 350
299 303 302 297 291 293 302 307 308 310 312 311 315 317 318 319 321 321 321 321 324 327 327 328 328 329 330 331 331 332 333 334 334 333 333 332 331 331 331 331 331 332 333 334 335 335 335 335 337 339 339 340 341 341 340 337 337 336 336 337 338 340 341
303 300 297 289 292 302 304 303 307 312 312 312 313 313 316 320 320 322 321 323 325 327 328 328 329 330 329 329 330 331 333 334 333 331 331 331 330 329 329 329 330 331 333 334 333 333 337 338 336 338 339 340 338 337 336 334 334 335 336 336 335 336 336
295 297 297 297 304 301 302 302 304 307 306 307 307 308 311 319 323 323 322 324 324 325 326 327 327 327 326 325 325 330 330 331 332 331 330 331 329 327 326 327 328 332 332 331 330 332 333 332 332 333 333 334 336 335 335 334 333 332 332 332 332 332 332
301 297 295 297 297 294 300 304 308 311 310 309 310 309 312 320 323 325 324 323 324 324 325 324 325 325 322 318 319 324 328 331 329 330 330 328 325 323 322 325 326 327 327 327 328 329 330 331 332 333 333 334 333 332 331 332 332 331 330 329 330 331 332
299 297 294 293 290 296 304 306 307 311 312 309 309 307 304 314 323 324 324 323 324 324 322 322 324 321 316 317 320 323 326 328 329 327 326 326 325 324 323 322 323 325 325 326 326 327 326 326 328 330 330 330 328 328 330 331 332 330 328 329 330 330 331
300 298 294 293 299 299 306 308 309 310 312 309 308 295 297 308 321 324 324 324 324 324 324 321 321 316 312 320 318 323 324 327 327 326 323 322 323 324 324 325 325 326 327 325 323 322 322 324 326 328 327 326 326 324 324 326 326 328 329 329 330 331 332
299 297 296 298 301 308 310 310 311 311 311 308 298 293 303 310 314 323 324 324 326 326 323 322 319 318 320 320 322 324 325 326 328 327 326 326 326 325 325 324 326 323 323 322 322 322 323 324 324 324 324 324 323 324 324 324 324 325 328 331 332 332 331
297 298 296 297 301 307 312 313 311 315 308 297 295 308 315 315 316 323 325 323 325 326 325 325 326 324 323 323 324 325 325 325 326 327 328 327 326 327 327 327 325 323 321 321 321 321 323 323 323 324 325 324 323 323 322 320 322 326 328 329 330 332 331
298 298 296 294 289 307 314 313 313 315 307 307 311 314 316 318 318 323 324 325 326 326 324 326 326 324 322 322 323 324 324 325 324 325 327 327 326 324 324 324 324 323 322 320 320 321 321 322 323 323 324 323 324 323 322 322 322 324 325 326 328 329 330
297 296 293 293 304 310 314 313 307 311 312 314 316 315 315 319 323 323 323 324 326 325 326 325 324 323 321 322 322 322 322 322 322 324 325 325 323 324 323 323 323 323 322 321 321 322 323 325 325 324 325 324 325 324 324 325 325 325 325 325 327 326 327
301 299 303 309 313 313 315 314 313 314 316 317 317 317 316 317 322 325 323 324 324 325 324 324 322 320 320 320 322 322 321 321 321 320 320 321 323 321 322 323 322 321 321 322 322 323 325 326 326 326 325 324 324 323 324 326 326 325 325 324 324 324 324
309 310 311 313 314 314 314 315 315 315 316 317 318 319 319 321 323 325 324 323 322 323 324 321 319 318 317 317 319 320 321 320 321 322 321 321 321 320 322 323 321 320 320 321 320 320 321 321 322 323 323 323 323 323 323 324 325 324 324 325 324 324 324
300 297 312 311 311 313 314 315 317 318 317 318 319 321 322 323 324 324 324 324 323 323 322 321 319 318 317 317 318 319 318 318 320 319 319 320 320 320 320 321 321 321 321 319 317 316 317 318 319 318 319 320 322 323 322 321 323 324 325 324 324 323 323
302 307 310 312 313 314 315 315 315 314 317 317 319 322 324 324 325 325 324 324 322 323 322 321 319 318 317 316 319 318 317 317 317 317 318 318 319 321 321 321 322 321 319 318 317 316 315 316 316 316 316 317 318 320 319 320 322 323 323 324 322 323 323
307 311 311 313 314 314 314 315 316 317 317 317 317 320 322 322 322 323 324 324 324 324 323 322 321 319 319 318 317 316 317 319 318 319 318 320 321 321 320 320 320 320 319 318 319 318 317 317 317 317 317 317 317 318 318 320 323 323 322 323 323 322 322
301 303 309 311 305 308 311 313 316 318 319 318 317 316 317 319 320 321 321 321 322 322 324 323 322 319 319 320 320 317 317 318 319 320 318 319 320 319 322 320 321 321 321 321 319 318 319 320 319 319 319 319 319 318 319 319 320 321 321 321 321 321 322
304 309 313 315 314 313 314 314 316 319 320 319 318 317 316 316 317 319 319 319 320 322 322 324 324 324 322 321 321 319 317 318 320 321 320 318 318 317 320 320 319 320 320 321 321 321 320 320 319 319 319 319 319 319 320 320 320 320 320 319 319 318 319
313 314 314 316 316 312 313 316 317 318 320 320 318 319 320 319 318 318 317 318 318 319 321 322 323 322 323 324 323 321 319 320 320 320 322 321 319 318 318 317 318 318 318 318 318 319 320 320 319 319 318 318 319 318 319 319 319 319 319 319 318 318 319
311 316 317 318 317 316 317 318 318 318 319 319 317 317 318 319 319 320 320 319 319 319 318 319 322 322 322 323 323 322 321 320 320 320 320 320 318 317 316 316 317 318 318 319 319 319 319 319 319 319 319 318 318 317 319 318 318 317 318 318 318 319 320

ECMWFFLT2_sfc_thetae_117.txt.gz
Theta_e
311 310 311 311 312 301 307 308 305 308 315 312 308 308 310 310 308 306 317 313 319 326 326 326 329 328 329 330 331 336 336 336 336 337 338 341 342 342 341 341 340 344 344 342 343 346 348 348 348 349 350 350 353 355 356 357 358 359 360 363 361 363 363
310 314 312 312 312 312 309 303 307 314 316 314 308 301 307 306 303 306 310 309 312 312 307 324 327 325 326 327 331 333 337 336 333 334 337 339 341 342 342 342 344 344 346 344 344 345 346 347 348 349 351 352 353 354 355 354 355 357 357 359 359 359 361
310 313 312 309 311 313 309 308 314 306 302 301 308 306 299 301 302 304 307 309 310 312 313 320 322 322 327 327 330 333 333 335 336 336 337 338 341 342 342 341 341 342 343 345 346 347 346 349 351 351 351 351 351 353 352 351 351 352 352 354 355 358 359
309 310 308 301 304 310 312 313 310 313 309 306 304 306 308 307 301 301 303 307 306 314 316 318 322 329 330 327 330 330 330 332 335 338 337 338 338 339 340 340 340 342 343 344 345 347 348 350 350 352 351 351 351 353 353 350 349 351 352 351 353 354 355
309 302 306 303 306 304 304 305 306 308 307 311 310 310 307 304 302 302 301 300 309 321 330 329 331 331 332 333 332 334 335 336 337 338 339 340 341 340 343 344 345 342 342 342 344 347 349 350 352 352 353 353 354 354 353 351 350 349 349 350 351 354 354
303 305 309 308 308 309 307 305 304 307 305 303 300 300 309 308 304 299 302 301 314 326 335 336 334 334 336 337 336 334 336 336 337 339 341 340 342 344 345 342 341 342 345 346 346 348 349 351 351 352 355 357 356 356 354 354 353 353 352 350 353 353 354
305 307 310 311 311 311 310 309 305 308 308 307 303 296 302 307 307 308 307 303 310 328 330 334 334 337 338 339 338 337 336 339 339 339 341 341 343 343 342 344 345 348 350 348 347 352 352 350 353 356 357 359 357 358 358 356 353 354 351 352 356 356 355
309 310 312 312 311 310 309 310 310 307 304 306 305 304 306 304 306 303 304 302 311 327 334 337 338 339 339 342 340 339 337 338 339 341 342 343 343 345 342 345 346 348 350 358 356 351 352 354 355 357 358 361 360 360 362 363 358 354 353 357 357 359 358
302 305 307 307 311 310 307 307 310 309 309 308 308 308 309 303 305 306 303 299 312 326 333 336 338 336 337 338 340 341 339 338 340 343 343 343 344 344 344 344 346 348 354 351 355 355 355 357 357 359 360 362 362 361 362 362 362 361 357 358 359 358 359
293 293 295 298 301 304 307 309 309 309 308 308 307 303 305 298 306 308 304 304 321 327 331 332 334 334 335 338 339 341 343 342 341 342 345 345 344 345 345 347 347 347 351 351 351 354 355 355 357 358 360 361 361 362 363 363 361 362 362 359 358 360 362
299 301 304 307 308 307 302 305 307 308 308 309 310 309 305 301 306 305 309 311 313 322 324 328 332 334 333 335 337 338 339 341 343 346 345 346 347 349 347 349 349 351 351 349 349 351 353 355 354 355 357 359 360 360 361 362 362 362 363 361 363 362 364
306 306 306 307 308 306 306 305 305 307 309 309 307 305 304 312 306 301 310 314 310 315 319 325 329 332 333 334 336 337 339 340 341 343 344 343 345 346 348 347 349 350 351 351 352 353 353 352 352 353 358 360 360 361 360 361 361 361 362 364 364 364 364
306 307 307 308 308 307 308 307 308 307 308 308 307 306 308 309 305 303 313 316 311 313 323 326 328 330 333 331 335 338 339 340 340 341 341 341 343 345 342 344 350 349 349 350 351 351 353 354 354 354 355 355 357 360 362 362 362 362 363 365 363 362 362
305 306 307 308 307 307 307 307 308 309 309 309 308 308 308 308 310 311 312 314 315 321 326 326 327 330 332 334 338 338 338 338 339 339 340 340 341 343 345 344 345 348 349 349 350 351 352 352 352 351 352 354 355 355 358 358 358 361 362 363 360 359 359
304 305 307 307 307 307 306 307 309 309 309 309 310 310 311 312 312 312 311 315 319 328 330 328 333 334 332 335 335 334 338 338 338 339 339 338 339 340 342 344 344 347 348 349 352 352 352 351 352 352 353 353 354 355 356 357 358 357 356 355 357 357 357
301 304 304 305 306 306 305 305 307 310 308 307 310 310 315 313 309 311 311 313 316 326 333 332 332 331 332 332 334 334 335 337 337 338 337 339 339 339 341 343 345 345 346 347 348 349 351 352 353 353 353 354 354 354 356 357 356 358 357 355 354 354 354
298 303 304 303 304 303 301 302 306 310 311 313 315 316 316 316 317 313 309 315 325 325 328 327 328 328 330 332 334 333 335 336 337 338 338 338 338 339 339 340 341 342 343 344 345 346 347 347 348 350 353 353 353 354 355 357 358 357 355 354 356 357 357
299 302 303 304 301 295 296 307 310 310 309 310 312 313 317 318 318 318 319 323 329 328 326 325 326 327 328 334 337 337 336 335 335 335 336 336 337 338 338 339 339 340 340 341 343 345 346 346 347 348 348 347 347 349 351 352 352 352 352 351 352 354 354
299 304 303 298 293 295 306 310 312 312 311 312 312 314 317 317 320 320 319 324 325 328 329 329 330 332 333 334 334 336 336 337 335 335 335 335 336 336 336 337 338 339 340 340 341 342 342 343 344 345 344 344 345 345 346 345 347 346 346 346 345 345 346
302 300 299 290 294 304 307 308 311 313 313 313 311 312 315 318 319 321 323 324 326 330 329 331 332 332 332 333 334 334 335 337 337 334 333 334 334 334 335 335 336 336 337 338 339 339 342 342 341 343 342 342 342 342 342 341 341 341 340 339 340 341 342
296 298 297 296 306 304 305 305 308 310 308 309 309 306 311 319 320 320 322 326 327 328 330 331 332 331 330 327 328 332 333 335 335 334 333 333 334 333 334 334 333 335 335 334 336 338 338 337 339 340 340 340 340 340 339 339 337 336 335 335 335 337 338
302 297 295 296 296 295 301 308 311 313 313 312 314 313 310 318 321 323 321 322 327 326 327 327 328 328 323 320 321 327 330 332 329 332 333 333 332 332 331 332 333 335 335 336 336 336 336 337 338 339 340 340 339 338 337 337 336 334 333 331 332 333 334
300 299 295 294 293 296 306 309 310 312 313 311 315 308 304 311 319 321 323 322 326 327 325 324 326 324 318 316 319 323 328 333 327 323 324 326 326 326 326 326 327 326 327 327 329 332 334 333 335 337 337 337 335 335 335 335 335 333 331 331 332 331 332
299 298 295 293 302 300 308 312 311 312 313 312 309 296 297 309 316 320 321 322 323 325 328 327 323 319 314 315 319 324 324 326 329 323 321 321 322 322 322 323 323 324 326 326 326 325 324 326 328 331 331 331 331 331 331 332 332 332 332 332 332 332 332
298 299 297 299 304 310 312 312 313 314 314 310 299 293 302 315 317 320 324 325 326 328 326 326 322 322 325 325 327 328 328 328 327 327 324 324 323 323 322 323 327 323 322 322 321 322 324 325 325 326 327 327 327 328 329 329 329 330 332 334 334 334 334
298 299 296 295 304 309 314 315 313 316 310 298 295 310 319 318 317 320 320 325 326 326 325 325 325 325 326 326 328 328 328 328 328 328 327 327 327 327 325 325 324 321 321 322 322 322 323 322 322 322 325 326 326 326 324 323 325 329 330 332 332 332 333
302 301 297 294 290 308 315 315 314 316 308 308 315 319 320 320 321 320 321 323 325 326 325 326 325 325 325 325 325 327 328 328 328 327 325 325 326 324 324 323 322 321 321 322 321 322 322 324 324 325 326 326 326 325 324 325 325 325 326 328 329 330 330
296 298 294 295 304 311 316 315 308 311 314 318 320 320 317 321 323 321 324 325 325 326 326 325 324 325 324 325 325 325 326 327 327 328 328 326 325 325 326 328 324 324 321 321 321 323 324 325 325 326 326 326 326 325 325 327 327 327 327 327 328 328 328
304 303 305 310 313 314 315 317 316 317 318 321 321 321 320 320 319 323 323 324 324 329 326 325 324 324 325 325 326 325 325 324 324 324 325 324 322 323 324 324 325 324 323 322 320 322 323 323 324 326 325 323 323 323 325 327 326 327 326 326 327 326 325
310 311 312 314 314 314 315 316 318 317 318 320 321 320 319 323 325 325 321 325 327 326 327 324 324 323 324 324 324 323 325 324 324 326 325 324 324 323 322 321 322 323 324 323 322 320 319 320 321 324 323 323 323 324 324 325 326 327 327 327 326 326 326
300 300 311 312 312 314 315 315 317 320 320 320 321 321 322 324 325 325 326 326 325 326 327 325 324 324 326 325 325 326 325 324 324 323 322 323 322 322 321 323 323 321 317 318 319 319 318 319 320 319 320 321 324 325 325 325 324 327 328 326 323 324 325
304 308 311 313 313 315 316 316 317 317 319 320 322 323 325 325 325 325 325 326 325 326 324 324 324 323 324 323 324 323 325 325 324 324 323 323 322 323 324 323 323 321 319 316 316 315 315 318 322 318 318 318 319 322 322 325 325 326 327 328 325 324 324
309 313 312 313 315 315 317 317 318 319 319 319 321 322 323 323 324 324 324 326 326 326 325 325 326 324 324 324 324 322 323 323 322 323 324 325 325 324 322 323 323 322 320 319 318 317 317 317 316 317 319 320 319 322 323 325 328 327 327 327 328 325 325
302 307 309 312 306 308 314 316 318 319 320 320 319 320 320 322 322 323 323 322 324 325 325 325 325 324 324 324 325 322 323 323 324 323 323 323 324 325 326 325 323 323 321 322 320 319 319 322 321 320 319 319 320 320 322 324 326 327 326 325 323 322 324
306 311 313 315 313 314 317 318 319 320 321 321 319 319 319 320 321 322 322 322 323 323 324 325 325 325 325 326 324 323 322 324 325 325 324 322 320 320 321 320 321 322 322 321 320 319 321 321 321 321 321 321 321 322 322 322 324 325 326 324 323 322 322
312 314 314 314 314 313 315 318 319 320 322 321 320 321 321 321 322 322 322 322 321 322 324 325 325 326 327 326 326 325 324 325 325 326 326 324 323 321 321 320 321 321 321 321 321 320 320 320 319 320 319 320 320 320 322 323 324 324 323 322 321 320 321
314 318 318 318 318 318 319 319 319 320 321 322 320 319 320 320 321 321 321 321 322 321 321 323 325 326 326 327 326 327 327 326 326 327 325 324 323 323 321 321 320 321 321 320 321 320 320 320 319 318 319 319 320 319 321 322 322 322 323 323 321 322 323

ECMWFFLT2_sfc_thetae_123.txt.gz
Theta_e
307 307 309 308 309 295 300 305 299 302 307 304 300 305 307 306 302 299 310 310 315 320 324 326 327 328 330 331 331 331 332 335 339 337 335 336 337 335 334 334 333 334 336 338 339 339 339 345 346 348 351 353 353 354 355 356 358 359 358 358 357 356 356
308 310 308 308 309 308 302 296 299 308 310 307 302 294 299 298 293 300 308 306 307 309 306 323 323 323 327 329 330 330 331 333 335 338 338 337 338 339 335 334 334 336 336 338 339 339 339 342 347 349 352 354 354 356 356 355 357 356 358 358 359 358 356
307 310 308 304 307 308 302 299 307 298 295 293 301 298 292 292 295 299 306 307 309 310 311 318 319 321 324 327 331 330 329 330 331 333 336 339 340 340 339 337 335 335 336 338 338 338 339 340 345 350 352 353 354 356 357 357 356 357 358 359 359 359 358
306 306 302 296 298 304 306 306 301 307 301 297 295 297 299 298 294 298 301 304 301 313 314 319 320 322 323 327 328 329 330 330 330 330 332 336 339 339 339 341 336 337 336 337 339 339 338 340 344 348 350 352 353 354 355 356 357 358 357 357 358 357 358
305 298 301 297 299 296 297 298 296 299 304 304 301 303 298 295 294 293 297 297 303 314 329 321 321 322 323 326 327 328 331 331 332 332 332 335 338 339 339 341 342 338 337 337 341 340 340 342 346 347 348 350 351 353 353 355 355 356 355 356 357 357 358
298 299 305 305 304 303 298 296 296 297 296 296 294 293 303 300 295 290 294 297 311 322 337 329 327 329 327 327 328 328 330 332 333 334 336 338 338 339 339 340 342 340 337 338 341 341 343 343 345 344 347 349 350 351 352 353 355 354 354 354 355 356 356
300 304 308 309 308 306 304 301 298 302 300 300 298 287 294 300 300 304 303 303 306 325 330 330 330 330 330 332 331 329 331 333 334 336 339 340 340 340 340 341 342 345 339 338 340 341 344 342 345 344 345 347 348 349 351 350 352 352 353 353 353 354 354
305 307 309 308 308 306 302 302 302 301 298 299 297 297 300 297 299 295 301 302 306 325 330 331 332 332 329 332 333 332 333 334 336 337 339 340 340 340 341 341 342 342 342 338 340 341 344 343 345 344 345 347 347 348 349 349 350 350 350 351 351 352 352
295 299 304 304 305 305 300 298 300 302 302 303 301 301 302 295 299 300 301 296 302 322 328 328 329 330 330 331 331 332 330 331 333 333 336 339 340 340 340 340 340 342 343 338 340 342 344 343 346 345 345 348 348 349 348 348 349 349 348 348 351 351 352
288 289 290 292 295 299 301 302 303 304 303 304 301 294 297 289 299 303 300 304 314 321 324 324 326 327 328 330 331 335 336 335 334 334 335 334 339 339 340 340 343 346 344 342 340 342 347 344 345 345 346 350 349 351 350 348 349 349 348 352 350 349 351
292 294 299 305 307 303 298 300 303 302 304 304 304 303 296 292 301 304 309 313 313 315 318 322 325 324 327 328 329 331 333 333 332 334 335 336 337 336 340 339 339 339 342 350 344 342 348 345 346 345 347 351 350 350 351 351 349 349 352 351 349 348 349
301 302 302 304 307 302 302 302 302 304 303 307 306 302 300 306 301 296 311 317 313 313 318 320 321 322 326 329 328 330 331 332 334 337 340 340 336 339 339 338 337 338 340 347 350 345 347 346 350 348 349 352 352 351 353 356 354 352 355 353 350 349 348
302 303 304 305 304 304 303 303 303 303 308 309 307 307 310 311 300 298 310 315 314 316 319 321 323 324 326 330 329 330 332 332 334 335 336 336 337 337 339 338 336 336 343 349 350 350 351 352 353 353 356 357 358 358 359 359 359 360 360 358 356 356 354
301 302 303 305 304 304 304 304 304 306 307 309 310 309 312 311 309 315 315 314 313 317 319 322 323 327 329 330 331 331 331 332 332 333 334 336 339 339 340 341 342 343 343 341 340 341 341 342 341 341 342 344 347 350 351 353 357 360 361 361 360 357 354
298 302 304 304 303 303 301 304 307 307 308 311 311 311 312 313 312 313 314 313 312 317 324 325 327 327 328 330 328 329 329 330 333 333 335 334 335 336 336 335 335 336 338 339 338 338 340 342 343 343 343 344 346 347 348 348 349 351 355 354 359 358 350
296 301 301 302 303 304 303 304 304 305 307 306 308 308 311 310 310 312 312 309 309 316 323 326 326 325 325 324 326 327 328 332 333 332 333 333 333 333 334 334 334 334 336 338 338 337 340 342 343 343 344 344 344 344 346 347 348 350 350 350 350 349 347
294 300 301 301 301 300 299 299 302 306 310 311 311 312 313 314 315 311 307 307 317 321 324 321 321 323 324 324 326 327 330 330 331 331 332 333 332 331 332 333 333 333 334 336 336 337 339 340 340 342 343 342 342 343 344 345 347 348 346 346 346 348 349
294 299 300 301 296 290 293 306 307 308 309 310 307 307 310 313 317 313 316 317 321 321 321 320 320 320 320 323 327 332 331 329 329 330 331 332 332 333 334 334 334 335 336 337 338 338 340 341 340 341 341 339 340 342 343 343 342 343 344 343 344 344 346
294 298 302 294 290 293 302 308 308 309 313 312 310 311 313 314 317 319 318 319 320 321 322 322 321 320 321 322 325 328 331 330 329 328 329 330 330 330 331 332 333 334 336 338 339 339 340 341 342 341 340 340 340 340 340 339 340 341 342 342 342 342 341
299 296 296 286 290 305 307 307 308 311 308 308 311 308 311 314 315 318 317 318 319 321 322 322 321 319 319 319 323 325 325 327 330 330 329 331 332 331 332 332 333 333 335 336 338 338 341 342 341 340 338 340 339 338 339 338 339 339 339 338 339 340 340
292 295 295 294 304 304 305 306 307 306 302 303 305 299 303 312 316 319 318 320 320 321 321 322 322 321 318 314 316 324 323 323 322 323 324 328 332 334 335 336 336 337 337 338 338 338 338 339 339 339 339 339 337 337 337 338 337 337 336 336 337 338 338
298 292 291 294 294 292 300 310 310 311 311 310 313 307 301 311 318 320 319 319 320 320 321 320 322 322 313 309 310 319 324 325 322 323 323 322 323 329 328 329 332 336 338 340 341 340 339 338 337 336 336 335 334 333 333 334 332 332 332 332 334 335 336
295 295 291 290 290 298 305 309 311 312 312 311 311 304 298 309 319 320 322 320 320 319 318 320 322 314 308 307 313 319 321 323 324 322 324 320 320 317 319 320 320 321 322 323 326 332 330 327 329 332 334 334 332 331 331 331 331 329 329 331 332 332 333
297 296 292 291 298 299 307 309 310 312 311 311 307 292 295 309 317 320 321 321 321 320 319 320 317 311 307 309 314 322 324 322 322 319 316 315 315 316 318 319 321 324 326 325 324 324 324 326 328 329 325 325 325 324 325 325 324 325 326 328 331 335 336
296 298 294 298 301 309 310 310 312 314 314 309 296 290 300 314 316 319 320 321 322 322 320 319 312 316 316 316 320 326 323 318 318 318 319 317 317 317 319 320 323 318 320 321 322 323 324 325 327 328 325 323 322 325 323 322 323 325 326 328 329 328 328
294 295 295 296 299 307 310 313 314 315 313 297 295 304 316 317 317 319 321 321 323 323 321 319 318 318 322 324 324 323 322 320 322 321 320 320 319 321 324 325 320 317 318 319 320 321 324 324 324 324 324 323 322 322 322 321 322 326 327 328 326 326 327
300 298 294 290 286 303 313 316 311 313 305 304 312 315 316 319 318 320 321 322 322 323 321 321 319 320 321 321 320 320 321 322 321 321 320 319 318 317 317 317 319 317 315 316 317 318 319 320 321 323 323 322 322 322 321 322 324 325 326 327 328 328 326
293 294 293 291 302 308 314 311 303 311 312 315 317 315 312 317 319 320 321 322 323 323 322 320 320 320 320 319 319 319 320 321 320 319 319 319 319 319 319 318 318 318 314 314 314 317 319 319 319 320 320 319 321 321 321 325 326 327 324 324 327 329 328
300 297 301 306 311 311 312 314 313 313 315 318 318 317 316 316 318 323 320 321 323 324 323 322 322 321 321 320 320 320 319 318 318 317 316 315 315 316 316 317 321 319 316 316 317 318 319 320 321 321 321 321 321 319 321 326 326 327 326 326 328 328 322
307 309 309 311 309 310 311 314 315 315 315 317 318 318 316 317 320 322 321 322 323 325 325 321 321 320 320 320 320 320 319 317 318 319 317 315 315 317 318 317 318 317 318 316 315 315 313 312 312 316 314 317 319 320 323 325 323 326 329 330 325 325 323
298 293 309 309 309 311 312 312 315 315 316 315 317 317 317 319 321 322 324 323 323 323 323 323 321 321 322 321 321 321 317 316 316 316 316 315 315 315 318 319 319 316 314 314 316 317 315 316 314 313 312 313 315 317 321 324 326 327 328 327 326 327 322
300 301 307 307 310 311 313 313 312 313 316 317 318 318 319 320 321 321 322 324 323 324 323 323 322 322 323 322 321 321 321 319 319 317 316 316 316 318 320 321 320 318 315 313 314 316 314 313 315 315 314 313 313 312 315 318 322 325 327 326 321 319 321
305 308 309 310 311 310 310 312 313 315 315 315 316 317 317 317 317 319 322 321 320 322 322 324 323 323 323 325 323 322 322 321 321 320 319 318 318 318 320 319 320 316 316 315 315 316 316 316 316 315 315 315 317 315 315 316 318 319 323 327 322 317 319
299 301 306 310 302 302 308 312 314 316 317 317 316 316 316 317 317 318 318 319 321 321 323 322 322 321 321 322 322 321 321 322 321 321 321 321 321 320 321 321 319 319 320 317 316 315 314 315 315 315 315 316 318 318 319 319 321 318 319 321 320 316 318
300 308 312 314 312 310 311 312 314 316 317 318 316 316 316 317 317 318 318 317 319 320 322 322 323 322 322 321 322 320 321 322 323 323 323 321 322 322 322 321 320 319 319 320 318 317 317 318 317 317 316 316 318 320 320 320 322 323 323 325 322 319 318
311 314 314 315 313 309 312 315 314 316 318 317 317 317 318 318 318 318 317 318 318 318 320 321 324 324 323 323 322 321 321 323 323 323 324 323 322 322 321 321 319 318 317 318 318 319 317 318 317 317 317 318 318 320 322 322 322 321 322 322 321 321 321
309 315 315 316 316 315 316 317 316 318 320 319 316 314 315 316 318 319 318 318 318 318 318 318 319 321 322 322 322 321 322 322 324 324 325 324 324 322 320 321 319 319 318 318 317 317 317 317 317 318 316 317 318 319 319 320 321 316 315 317 316 318 321